Observation data for McCamey on 08/20/2019      Previous  Date  Next       Current Mesonet Observations  Soil Data  Daily Summary Page  Observations in Plain Language
KMC4 200500Z 13006KT 29/14 A3003 RMK A01 T02930144  RH  040%=      5-min Rain = 0
KMC4 200501Z 13006KT 29/14 A3003 RMK A01 T02930144  RH  040%=      5-min Rain = 0
KMC4 200502Z 13007KT 29/14 A3003 RMK A01 T02930144  RH  040%=      5-min Rain = 0
KMC4 200503Z 13006KT 29/14 A3003 RMK A01 T02930144  RH  040%=      5-min Rain = 0
KMC4 200504Z 13006KT 29/15 A3003 RMK A01 T02930145  RH  040%=      5-min Rain = 0
KMC4 200505Z 13007KT 29/15 A3003 RMK A01 T02930145  RH  040%=      5-min Rain = 0
KMC4 200506Z 13007KT 29/15 A3003 RMK A01 T02940145  RH  040%=      5-min Rain = 0
KMC4 200507Z 13007KT 29/15 A3003 RMK A01 T02940145  RH  040%=      5-min Rain = 0
KMC4 200508Z 13007KT 29/15 A3003 RMK A01 T02940145  RH  040%=      5-min Rain = 0
KMC4 200509Z 12007KT 30/15 A3003 RMK A01 T02950145  RH  040%=      5-min Rain = 0
KMC4 200510Z 12007KT 30/15 A3003 RMK A01 T02950145  RH  040%=      5-min Rain = 0
KMC4 200511Z 13007KT 30/15 A3003 RMK A01 T02950146  RH  040%=      5-min Rain = 0
KMC4 200512Z 12007KT 30/15 A3003 RMK A01 T02960146  RH  040%=      5-min Rain = 0
KMC4 200513Z 13008KT 30/15 A3003 RMK A01 T02950146  RH  040%=      5-min Rain = 0
KMC4 200514Z 12007KT 30/15 A3003 RMK A01 T02950146  RH  040%=      5-min Rain = 0
KMC4 200515Z 12007KT 30/15 A3004 RMK A01 T02950146  RH  040%=      5-min Rain = 0
KMC4 200516Z 13007KT 30/15 A3004 RMK A01 T02960146  RH  040%=      5-min Rain = 0
KMC4 200517Z 12008KT 30/15 A3004 RMK A01 T02960147  RH  040%=      5-min Rain = 0
KMC4 200518Z 12008KT 30/15 A3004 RMK A01 T02960147  RH  040%=      5-min Rain = 0
KMC4 200519Z 12007KT 30/15 A3004 RMK A01 T02960147  RH  040%=      5-min Rain = 0
KMC4 200520Z 12008KT 30/15 A3004 RMK A01 T02960147  RH  040%=      5-min Rain = 0
KMC4 200521Z 12007KT 30/15 A3004 RMK A01 T02960148  RH  041%=      5-min Rain = 0
KMC4 200522Z 12008KT 30/15 A3004 RMK A01 T02960148  RH  041%=      5-min Rain = 0
KMC4 200523Z 13007KT 30/15 A3004 RMK A01 T02960148  RH  041%=      5-min Rain = 0
KMC4 200524Z 12007KT 30/15 A3004 RMK A01 T02960148  RH  041%=      5-min Rain = 0
KMC4 200525Z 13007KT 30/15 A3004 RMK A01 T02960148  RH  041%=      5-min Rain = 0
KMC4 200526Z 13007KT 30/15 A3003 RMK A01 T02960149  RH  041%=      5-min Rain = 0
KMC4 200527Z 13007KT 30/15 A3003 RMK A01 T02950149  RH  041%=      5-min Rain = 0
KMC4 200528Z 12007KT 30/15 A3003 RMK A01 T02950149  RH  041%=      5-min Rain = 0
KMC4 200529Z 12007KT 30/15 A3003 RMK A01 T02950149  RH  041%=      5-min Rain = 0
KMC4 200530Z 12007KT 30/15 A3004 RMK A01 T02950150  RH  041%=      5-min Rain = 0
KMC4 200531Z 12008KT 29/15 A3004 RMK A01 T02940150  RH  041%=      5-min Rain = 0
KMC4 200532Z 12008KT 30/15 A3004 RMK A01 T02950151  RH  042%=      5-min Rain = 0
KMC4 200533Z 12008KT 30/15 A3004 RMK A01 T02950151  RH  042%=      5-min Rain = 0
KMC4 200534Z 12008KT 30/15 A3004 RMK A01 T02950152  RH  042%=      5-min Rain = 0
KMC4 200535Z 12008KT 30/15 A3004 RMK A01 T02950152  RH  042%=      5-min Rain = 0
KMC4 200536Z 12007KT 30/15 A3004 RMK A01 T02950152  RH  042%=      5-min Rain = 0
KMC4 200537Z 12008KT 30/15 A3003 RMK A01 T02950152  RH  042%=      5-min Rain = 0
KMC4 200538Z 13007KT 30/15 A3004 RMK A01 T02950153  RH  042%=      5-min Rain = 0
KMC4 200539Z 12007KT 30/15 A3004 RMK A01 T02950153  RH  042%=      5-min Rain = 0
KMC4 200540Z 13008KT 29/15 A3004 RMK A01 T02940153  RH  042%=      5-min Rain = 0
KMC4 200541Z 13007KT 30/15 A3004 RMK A01 T02950154  RH  042%=      5-min Rain = 0
KMC4 200542Z 12008KT 29/15 A3004 RMK A01 T02940153  RH  042%=      5-min Rain = 0
KMC4 200543Z 12008KT 29/15 A3004 RMK A01 T02930154  RH  043%=      5-min Rain = 0
KMC4 200544Z 12008KT 29/15 A3004 RMK A01 T02930154  RH  043%=      5-min Rain = 0
KMC4 200545Z 12007KT 29/15 A3004 RMK A01 T02930154  RH  043%=      5-min Rain = 0
KMC4 200546Z 12008KT 29/15 A3004 RMK A01 T02930154  RH  043%=      5-min Rain = 0
KMC4 200547Z 12006KT 29/16 A3004 RMK A01 T02930155  RH  043%=      5-min Rain = 0
KMC4 200548Z 12008KT 29/16 A3004 RMK A01 T02930155  RH  043%=      5-min Rain = 0
KMC4 200549Z 13007KT 29/16 A3004 RMK A01 T02920156  RH  044%=      5-min Rain = 0
KMC4 200550Z 12008KT 29/16 A3004 RMK A01 T02930156  RH  043%=      5-min Rain = 0
KMC4 200551Z 12007KT 29/16 A3004 RMK A01 T02930156  RH  044%=      5-min Rain = 0
KMC4 200552Z 12008KT 29/16 A3004 RMK A01 T02930157  RH  044%=      5-min Rain = 0
KMC4 200553Z 12007KT 29/16 A3004 RMK A01 T02930157  RH  044%=      5-min Rain = 0
KMC4 200554Z 12008KT 29/16 A3004 RMK A01 T02930157  RH  044%=      5-min Rain = 0
KMC4 200555Z 12007KT 29/16 A3004 RMK A01 T02930158  RH  044%=      5-min Rain = 0
KMC4 200556Z 12007KT 29/16 A3004 RMK A01 T02930158  RH  044%=      5-min Rain = 0
KMC4 200557Z 12007KT 29/16 A3004 RMK A01 T02930158  RH  044%=      5-min Rain = 0
KMC4 200558Z 12007KT 29/16 A3004 RMK A01 T02920158  RH  044%=      5-min Rain = 0
KMC4 200559Z 12007KT 29/16 A3004 RMK A01 T02920159  RH  044%=      5-min Rain = 0
KMC4 200600Z 12007KT 29/16 A3004 RMK A01 T02920159  RH  044%=      5-min Rain = 0
KMC4 200601Z 12007KT 29/16 A3004 RMK A01 T02920159  RH  044%=      5-min Rain = 0
KMC4 200602Z 12007KT 29/16 A3004 RMK A01 T02920159  RH  045%=      5-min Rain = 0
KMC4 200603Z 12007KT 29/16 A3004 RMK A01 T02920160  RH  045%=      5-min Rain = 0
KMC4 200604Z 12007KT 29/16 A3004 RMK A01 T02930160  RH  045%=      5-min Rain = 0
KMC4 200605Z 12007KT 29/16 A3004 RMK A01 T02930160  RH  045%=      5-min Rain = 0
KMC4 200606Z 12007KT 29/16 A3004 RMK A01 T02930161  RH  045%=      5-min Rain = 0
KMC4 200607Z 12008KT 29/16 A3004 RMK A01 T02930161  RH  045%=      5-min Rain = 0
KMC4 200608Z 12007KT 29/16 A3004 RMK A01 T02930161  RH  045%=      5-min Rain = 0
KMC4 200609Z 12007KT 29/16 A3004 RMK A01 T02940162  RH  045%=      5-min Rain = 0
KMC4 200610Z 12007KT 29/16 A3004 RMK A01 T02940162  RH  045%=      5-min Rain = 0
KMC4 200611Z 12007KT 29/16 A3004 RMK A01 T02930162  RH  045%=      5-min Rain = 0
KMC4 200612Z 12008KT 29/16 A3004 RMK A01 T02930162  RH  045%=      5-min Rain = 0
KMC4 200613Z 12008KT 29/16 A3004 RMK A01 T02930163  RH  045%=      5-min Rain = 0
KMC4 200614Z 12007KT 29/16 A3004 RMK A01 T02930163  RH  045%=      5-min Rain = 0
KMC4 200615Z 11007KT 29/16 A3004 RMK A01 T02930163  RH  045%=      5-min Rain = 0
KMC4 200616Z 12007KT 29/16 A3004 RMK A01 T02930163  RH  045%=      5-min Rain = 0
KMC4 200617Z 11007KT 29/16 A3004 RMK A01 T02930163  RH  045%=      5-min Rain = 0
KMC4 200618Z 12008KT 29/16 A3004 RMK A01 T02930163  RH  045%=      5-min Rain = 0
KMC4 200619Z 12007KT 29/16 A3004 RMK A01 T02930163  RH  046%=      5-min Rain = 0
KMC4 200620Z 12007KT 29/16 A3004 RMK A01 T02930164  RH  046%=      5-min Rain = 0
KMC4 200621Z 11007KT 29/16 A3004 RMK A01 T02930164  RH  046%=      5-min Rain = 0
KMC4 200622Z 11007KT 29/16 A3004 RMK A01 T02930164  RH  046%=      5-min Rain = 0
KMC4 200623Z 12007KT 29/16 A3004 RMK A01 T02930164  RH  046%=      5-min Rain = 0
KMC4 200624Z 11008KT 29/16 A3004 RMK A01 T02930164  RH  046%=      5-min Rain = 0
KMC4 200625Z 11006KT 29/16 A3004 RMK A01 T02930164  RH  046%=      5-min Rain = 0
KMC4 200626Z 11007KT 29/17 A3004 RMK A01 T02930165  RH  046%=      5-min Rain = 0
KMC4 200627Z 12008KT 29/16 A3004 RMK A01 T02930164  RH  046%=      5-min Rain = 0
KMC4 200628Z 12008KT 29/17 A3004 RMK A01 T02930165  RH  046%=      5-min Rain = 0
KMC4 200629Z 12008KT 29/17 A3004 RMK A01 T02930165  RH  046%=      5-min Rain = 0
KMC4 200630Z 12008KT 29/17 A3004 RMK A01 T02940165  RH  046%=      5-min Rain = 0
KMC4 200631Z 12007KT 29/17 A3004 RMK A01 T02940165  RH  046%=      5-min Rain = 0
KMC4 200632Z 12007KT 29/17 A3004 RMK A01 T02940165  RH  046%=      5-min Rain = 0
KMC4 200633Z 13007KT 29/17 A3004 RMK A01 T02940165  RH  046%=      5-min Rain = 0
KMC4 200634Z 12007KT 29/17 A3004 RMK A01 T02940165  RH  046%=      5-min Rain = 0
KMC4 200635Z 13006KT 29/17 A3004 RMK A01 T02940165  RH  046%=      5-min Rain = 0
KMC4 200636Z 13007KT 29/17 A3004 RMK A01 T02940165  RH  046%=      5-min Rain = 0
KMC4 200637Z 13008KT 29/17 A3004 RMK A01 T02930165  RH  046%=      5-min Rain = 0
KMC4 200638Z 13007KT 29/17 A3004 RMK A01 T02930165  RH  046%=      5-min Rain = 0
KMC4 200639Z 13007KT 29/17 A3004 RMK A01 T02940166  RH  046%=      5-min Rain = 0
KMC4 200640Z 12009KT 29/17 A3004 RMK A01 T02940165  RH  046%=      5-min Rain = 0
KMC4 200641Z 12007KT 29/17 A3004 RMK A01 T02940165  RH  046%=      5-min Rain = 0
KMC4 200642Z 12008KT 29/17 A3004 RMK A01 T02930165  RH  046%=      5-min Rain = 0
KMC4 200643Z 12008KT 29/17 A3004 RMK A01 T02930165  RH  046%=      5-min Rain = 0
KMC4 200644Z 12008KT 29/17 A3004 RMK A01 T02930165  RH  046%=      5-min Rain = 0
KMC4 200645Z 12007KT 29/17 A3004 RMK A01 T02920165  RH  046%=      5-min Rain = 0
KMC4 200646Z 12008KT 29/17 A3004 RMK A01 T02920166  RH  046%=      5-min Rain = 0
KMC4 200647Z 12009KT 29/17 A3004 RMK A01 T02920166  RH  046%=      5-min Rain = 0
KMC4 200648Z 12008KT 29/17 A3004 RMK A01 T02920165  RH  046%=      5-min Rain = 0
KMC4 200649Z 12008KT 29/17 A3003 RMK A01 T02920165  RH  046%=      5-min Rain = 0
KMC4 200650Z 12007KT 29/17 A3003 RMK A01 T02930166  RH  046%=      5-min Rain = 0
KMC4 200651Z 12008KT 29/17 A3003 RMK A01 T02920165  RH  046%=      5-min Rain = 0
KMC4 200652Z 12009KT 29/17 A3003 RMK A01 T02920166  RH  046%=      5-min Rain = 0
KMC4 200653Z 12009KT 29/17 A3003 RMK A01 T02920165  RH  046%=      5-min Rain = 0
KMC4 200654Z 12009KT 29/17 A3003 RMK A01 T02920166  RH  046%=      5-min Rain = 0
KMC4 200655Z 12009KT 29/17 A3003 RMK A01 T02920166  RH  046%=      5-min Rain = 0
KMC4 200656Z 12008KT 29/17 A3003 RMK A01 T02920166  RH  046%=      5-min Rain = 0
KMC4 200657Z 12009KT 29/17 A3003 RMK A01 T02920166  RH  047%=      5-min Rain = 0
KMC4 200658Z 12010KT 29/17 A3003 RMK A01 T02910166  RH  047%=      5-min Rain = 0
KMC4 200659Z 12009KT 29/17 A3003 RMK A01 T02910166  RH  047%=      5-min Rain = 0
KMC4 200700Z 12009KT 29/17 A3003 RMK A01 T02910166  RH  047%=      5-min Rain = 0
KMC4 200701Z 12008KT 29/17 A3003 RMK A01 T02910166  RH  047%=      5-min Rain = 0
KMC4 200702Z 12010KT 29/17 A3003 RMK A01 T02910166  RH  047%=      5-min Rain = 0
KMC4 200703Z 12010KT 29/17 A3003 RMK A01 T02910166  RH  047%=      5-min Rain = 0
KMC4 200704Z 13010KT 29/17 A3003 RMK A01 T02910166  RH  047%=      5-min Rain = 0
KMC4 200705Z 12012KT 29/17 A3003 RMK A01 T02910166  RH  047%=      5-min Rain = 0
KMC4 200706Z 12009KT 29/17 A3003 RMK A01 T02910166  RH  047%=      5-min Rain = 0
KMC4 200707Z 13009KT 29/17 A3003 RMK A01 T02910166  RH  047%=      5-min Rain = 0
KMC4 200708Z 13010KT 29/17 A3003 RMK A01 T02910167  RH  047%=      5-min Rain = 0
KMC4 200709Z 12009KT 29/17 A3003 RMK A01 T02910167  RH  047%=      5-min Rain = 0
KMC4 200710Z 13009KT 29/17 A3003 RMK A01 T02910166  RH  047%=      5-min Rain = 0
KMC4 200711Z 12010KT 29/17 A3003 RMK A01 T02900167  RH  047%=      5-min Rain = 0
KMC4 200712Z 13010KT 29/17 A3003 RMK A01 T02900167  RH  047%=      5-min Rain = 0
KMC4 200713Z 12011KT 29/17 A3003 RMK A01 T02900167  RH  047%=      5-min Rain = 0
KMC4 200714Z 13010KT 29/17 A3003 RMK A01 T02910167  RH  047%=      5-min Rain = 0
KMC4 200715Z 12010KT 29/17 A3003 RMK A01 T02910167  RH  047%=      5-min Rain = 0
KMC4 200716Z 12009KT 29/17 A3003 RMK A01 T02900167  RH  047%=      5-min Rain = 0
KMC4 200717Z 13010KT 29/17 A3003 RMK A01 T02900167  RH  047%=      5-min Rain = 0
KMC4 200718Z 12011KT 29/17 A3003 RMK A01 T02910167  RH  047%=      5-min Rain = 0
KMC4 200719Z 13010KT 29/17 A3003 RMK A01 T02910167  RH  047%=      5-min Rain = 0
KMC4 200720Z 12009KT 29/17 A3003 RMK A01 T02910167  RH  047%=      5-min Rain = 0
KMC4 200721Z 12009KT 29/17 A3003 RMK A01 T02910167  RH  047%=      5-min Rain = 0
KMC4 200722Z 13010KT 29/17 A3003 RMK A01 T02910167  RH  047%=      5-min Rain = 0
KMC4 200723Z 12010KT 29/17 A3003 RMK A01 T02910167  RH  047%=      5-min Rain = 0
KMC4 200724Z 12010KT 29/17 A3003 RMK A01 T02910167  RH  047%=      5-min Rain = 0
KMC4 200725Z 13008KT 29/17 A3003 RMK A01 T02910167  RH  047%=      5-min Rain = 0
KMC4 200726Z 13010KT 29/17 A3003 RMK A01 T02900167  RH  047%=      5-min Rain = 0
KMC4 200727Z 13009KT 29/17 A3003 RMK A01 T02900167  RH  047%=      5-min Rain = 0
KMC4 200728Z 12010KT 29/17 A3003 RMK A01 T02900167  RH  047%=      5-min Rain = 0
KMC4 200729Z 13010KT 29/17 A3003 RMK A01 T02900167  RH  047%=      5-min Rain = 0
KMC4 200730Z 13010KT 29/17 A3003 RMK A01 T02900167  RH  048%=      5-min Rain = 0
KMC4 200731Z 13010KT 29/17 A3003 RMK A01 T02890167  RH  048%=      5-min Rain = 0
KMC4 200732Z 13010KT 29/17 A3003 RMK A01 T02890167  RH  048%=      5-min Rain = 0
KMC4 200733Z 13010KT 29/17 A3003 RMK A01 T02900167  RH  048%=      5-min Rain = 0
KMC4 200734Z 13010KT 29/17 A3003 RMK A01 T02900167  RH  048%=      5-min Rain = 0
KMC4 200735Z 13009KT 29/17 A3003 RMK A01 T02900167  RH  048%=      5-min Rain = 0
KMC4 200736Z 13009KT 29/17 A3003 RMK A01 T02890167  RH  048%=      5-min Rain = 0
KMC4 200737Z 13009KT 29/17 A3003 RMK A01 T02900168  RH  048%=      5-min Rain = 0
KMC4 200738Z 12009KT 29/17 A3003 RMK A01 T02890167  RH  048%=      5-min Rain = 0
KMC4 200739Z 13009KT 29/17 A3003 RMK A01 T02880167  RH  048%=      5-min Rain = 0
KMC4 200740Z 12010KT 29/17 A3003 RMK A01 T02880168  RH  048%=      5-min Rain = 0
KMC4 200741Z 12009KT 29/17 A3003 RMK A01 T02880167  RH  048%=      5-min Rain = 0
KMC4 200742Z 12009KT 29/17 A3003 RMK A01 T02880168  RH  048%=      5-min Rain = 0
KMC4 200743Z 13009KT 29/17 A3003 RMK A01 T02880167  RH  048%=      5-min Rain = 0
KMC4 200744Z 13009KT 29/17 A3003 RMK A01 T02880167  RH  048%=      5-min Rain = 0
KMC4 200745Z 12010KT 29/17 A3003 RMK A01 T02880168  RH  048%=      5-min Rain = 0
KMC4 200746Z 13009KT 29/17 A3003 RMK A01 T02880168  RH  048%=      5-min Rain = 0
KMC4 200747Z 12010KT 29/17 A3003 RMK A01 T02880168  RH  048%=      5-min Rain = 0
KMC4 200748Z 12008KT 29/17 A3003 RMK A01 T02890168  RH  048%=      5-min Rain = 0
KMC4 200749Z 12010KT 29/17 A3003 RMK A01 T02890168  RH  048%=      5-min Rain = 0
KMC4 200750Z 12008KT 29/17 A3003 RMK A01 T02890168  RH  048%=      5-min Rain = 0
KMC4 200751Z 12008KT 29/17 A3003 RMK A01 T02890168  RH  048%=      5-min Rain = 0
KMC4 200752Z 13009KT 29/17 A3003 RMK A01 T02890168  RH  048%=      5-min Rain = 0
KMC4 200753Z 12009KT 29/17 A3003 RMK A01 T02880168  RH  048%=      5-min Rain = 0
KMC4 200754Z 13009KT 29/17 A3003 RMK A01 T02880168  RH  048%=      5-min Rain = 0
KMC4 200755Z 12009KT 29/17 A3003 RMK A01 T02880168  RH  048%=      5-min Rain = 0
KMC4 200756Z 12008KT 29/17 A3003 RMK A01 T02880168  RH  048%=      5-min Rain = 0
KMC4 200757Z 12009KT 29/17 A3003 RMK A01 T02880168  RH  048%=      5-min Rain = 0
KMC4 200758Z 12009KT 29/17 A3003 RMK A01 T02880168  RH  048%=      5-min Rain = 0
KMC4 200759Z 12008KT 29/17 A3003 RMK A01 T02880168  RH  048%=      5-min Rain = 0
KMC4 200800Z 12008KT 29/17 A3003 RMK A01 T02870167  RH  048%=      5-min Rain = 0
KMC4 200801Z 12008KT 29/17 A3003 RMK A01 T02870168  RH  048%=      5-min Rain = 0
KMC4 200802Z 12009KT 29/17 A3003 RMK A01 T02870168  RH  049%=      5-min Rain = 0
KMC4 200803Z 12009KT 29/17 A3003 RMK A01 T02870168  RH  049%=      5-min Rain = 0
KMC4 200804Z 12009KT 29/17 A3003 RMK A01 T02870168  RH  049%=      5-min Rain = 0
KMC4 200805Z 13009KT 29/17 A3003 RMK A01 T02870168  RH  049%=      5-min Rain = 0
KMC4 200806Z 12008KT 29/17 A3003 RMK A01 T02870168  RH  049%=      5-min Rain = 0
KMC4 200807Z 12010KT 29/17 A3003 RMK A01 T02870168  RH  049%=      5-min Rain = 0
KMC4 200808Z 12009KT 29/17 A3003 RMK A01 T02870168  RH  049%=      5-min Rain = 0
KMC4 200809Z 12008KT 29/17 A3003 RMK A01 T02870168  RH  049%=      5-min Rain = 0
KMC4 200810Z 13008KT 29/17 A3003 RMK A01 T02870168  RH  049%=      5-min Rain = 0
KMC4 200811Z 13010KT 29/17 A3003 RMK A01 T02870168  RH  049%=      5-min Rain = 0
KMC4 200812Z 12011KT 29/17 A3003 RMK A01 T02860168  RH  049%=      5-min Rain = 0
KMC4 200813Z 13010KT 29/17 A3003 RMK A01 T02870168  RH  049%=      5-min Rain = 0
KMC4 200814Z 12007KT 29/17 A3003 RMK A01 T02870168  RH  049%=      5-min Rain = 0
KMC4 200815Z 13008KT 29/17 A3003 RMK A01 T02870168  RH  049%=      5-min Rain = 0
KMC4 200816Z 13008KT 29/17 A3003 RMK A01 T02860168  RH  049%=      5-min Rain = 0
KMC4 200817Z 13009KT 29/17 A3003 RMK A01 T02860168  RH  049%=      5-min Rain = 0
KMC4 200818Z 13010KT 29/17 A3003 RMK A01 T02860168  RH  049%=      5-min Rain = 0
KMC4 200819Z 13008KT 29/17 A3003 RMK A01 T02860168  RH  049%=      5-min Rain = 0
KMC4 200820Z 13009KT 29/17 A3003 RMK A01 T02860168  RH  049%=      5-min Rain = 0
KMC4 200821Z 13010KT 29/17 A3003 RMK A01 T02860168  RH  049%=      5-min Rain = 0
KMC4 200822Z 13008KT 29/17 A3003 RMK A01 T02860168  RH  049%=      5-min Rain = 0
KMC4 200823Z 12011KT 29/17 A3003 RMK A01 T02850168  RH  049%=      5-min Rain = 0
KMC4 200824Z 13009KT 29/17 A3003 RMK A01 T02850168  RH  049%=      5-min Rain = 0
KMC4 200825Z 13008KT 29/17 A3003 RMK A01 T02860169  RH  049%=      5-min Rain = 0
KMC4 200826Z 13010KT 29/17 A3003 RMK A01 T02850168  RH  049%=      5-min Rain = 0
KMC4 200827Z 13009KT 29/17 A3003 RMK A01 T02850169  RH  049%=      5-min Rain = 0
KMC4 200828Z 13010KT 29/17 A3003 RMK A01 T02850169  RH  049%=      5-min Rain = 0
KMC4 200829Z 12009KT 28/17 A3003 RMK A01 T02840169  RH  049%=      5-min Rain = 0
KMC4 200830Z 13010KT 28/17 A3003 RMK A01 T02840169  RH  049%=      5-min Rain = 0
KMC4 200831Z 13009KT 29/17 A3003 RMK A01 T02850169  RH  050%=      5-min Rain = 0
KMC4 200832Z 13010KT 29/17 A3003 RMK A01 T02850169  RH  049%=      5-min Rain = 0
KMC4 200833Z 13010KT 28/17 A3003 RMK A01 T02840169  RH  049%=      5-min Rain = 0
KMC4 200834Z 13010KT 29/17 A3003 RMK A01 T02850169  RH  049%=      5-min Rain = 0
KMC4 200835Z 13010KT 29/17 A3003 RMK A01 T02850169  RH  050%=      5-min Rain = 0
KMC4 200836Z 13010KT 29/17 A3003 RMK A01 T02850169  RH  050%=      5-min Rain = 0
KMC4 200837Z 13010KT 29/17 A3003 RMK A01 T02850169  RH  050%=      5-min Rain = 0
KMC4 200838Z 13010KT 28/17 A3003 RMK A01 T02840169  RH  050%=      5-min Rain = 0
KMC4 200839Z 13010KT 28/17 A3003 RMK A01 T02840169  RH  050%=      5-min Rain = 0
KMC4 200840Z 13011KT 28/17 A3003 RMK A01 T02840170  RH  050%=      5-min Rain = 0
KMC4 200841Z 13010KT 28/17 A3003 RMK A01 T02840170  RH  050%=      5-min Rain = 0
KMC4 200842Z 13009KT 28/17 A3003 RMK A01 T02840170  RH  050%=      5-min Rain = 0
KMC4 200843Z 13010KT 28/17 A3003 RMK A01 T02840170  RH  050%=      5-min Rain = 0
KMC4 200844Z 13011KT 28/17 A3004 RMK A01 T02830169  RH  050%=      5-min Rain = 0
KMC4 200845Z 14012KT 28/17 A3004 RMK A01 T02830170  RH  050%=      5-min Rain = 0
KMC4 200846Z 13011KT 28/17 A3004 RMK A01 T02830170  RH  050%=      5-min Rain = 0
KMC4 200847Z 13011KT 28/17 A3004 RMK A01 T02830170  RH  050%=      5-min Rain = 0
KMC4 200848Z 13010KT 28/17 A3004 RMK A01 T02830170  RH  050%=      5-min Rain = 0
KMC4 200849Z 14011KT 28/17 A3004 RMK A01 T02830170  RH  050%=      5-min Rain = 0
KMC4 200850Z 14013G18KT 28/17 A3004 RMK A01 T02830171  RH  050%=      5-min Rain = 0
KMC4 200851Z 14014KT 28/17 A3004 RMK A01 T02840171  RH  051%=      5-min Rain = 0
KMC4 200852Z 14011KT 29/17 A3004 RMK A01 T02850172  RH  050%=      5-min Rain = 0
KMC4 200853Z 13010KT 29/17 A3004 RMK A01 T02850172  RH  050%=      5-min Rain = 0
KMC4 200854Z 14010KT 28/17 A3004 RMK A01 T02840171  RH  050%=      5-min Rain = 0
KMC4 200855Z 14011KT 28/17 A3004 RMK A01 T02840172  RH  051%=      5-min Rain = 0
KMC4 200856Z 14010KT 28/17 A3004 RMK A01 T02830171  RH  051%=      5-min Rain = 0
KMC4 200857Z 14011KT 28/17 A3004 RMK A01 T02830172  RH  051%=      5-min Rain = 0
KMC4 200858Z 13010KT 28/17 A3004 RMK A01 T02830172  RH  051%=      5-min Rain = 0
KMC4 200859Z 14011KT 28/17 A3004 RMK A01 T02830172  RH  051%=      5-min Rain = 0
KMC4 200900Z 13012KT 28/17 A3004 RMK A01 T02830172  RH  051%=      5-min Rain = 0
KMC4 200901Z 13013KT 28/17 A3004 RMK A01 T02830172  RH  051%=      5-min Rain = 0
KMC4 200902Z 14013KT 28/17 A3004 RMK A01 T02830172  RH  051%=      5-min Rain = 0
KMC4 200903Z 14013KT 28/17 A3004 RMK A01 T02830173  RH  051%=      5-min Rain = 0
KMC4 200904Z 14011KT 28/17 A3004 RMK A01 T02830173  RH  051%=      5-min Rain = 0
KMC4 200905Z 14011KT 28/17 A3004 RMK A01 T02830173  RH  051%=      5-min Rain = 0
KMC4 200906Z 13012KT 28/17 A3004 RMK A01 T02830173  RH  051%=      5-min Rain = 0
KMC4 200907Z 13012KT 28/17 A3004 RMK A01 T02820173  RH  052%=      5-min Rain = 0
KMC4 200908Z 14010KT 28/17 A3004 RMK A01 T02820173  RH  052%=      5-min Rain = 0
KMC4 200909Z 14012KT 28/17 A3004 RMK A01 T02820173  RH  052%=      5-min Rain = 0
KMC4 200910Z 14012KT 28/17 A3004 RMK A01 T02820174  RH  052%=      5-min Rain = 0
KMC4 200911Z 13011KT 28/17 A3004 RMK A01 T02820174  RH  052%=      5-min Rain = 0
KMC4 200912Z 14011KT 28/17 A3004 RMK A01 T02810174  RH  052%=      5-min Rain = 0
KMC4 200913Z 14011KT 28/17 A3004 RMK A01 T02810174  RH  052%=      5-min Rain = 0
KMC4 200914Z 14011KT 28/18 A3004 RMK A01 T02810175  RH  053%=      5-min Rain = 0
KMC4 200915Z 14012KT 28/18 A3004 RMK A01 T02810175  RH  053%=      5-min Rain = 0
KMC4 200916Z 14011KT 28/18 A3004 RMK A01 T02800175  RH  053%=      5-min Rain = 0
KMC4 200917Z 14011KT 28/18 A3004 RMK A01 T02800175  RH  053%=      5-min Rain = 0
KMC4 200918Z 14010KT 28/18 A3004 RMK A01 T02800176  RH  053%=      5-min Rain = 0
KMC4 200919Z 14011KT 28/18 A3004 RMK A01 T02800176  RH  053%=      5-min Rain = 0
KMC4 200920Z 14012KT 28/18 A3004 RMK A01 T02800176  RH  053%=      5-min Rain = 0
KMC4 200921Z 13012KT 28/18 A3004 RMK A01 T02800176  RH  053%=      5-min Rain = 0
KMC4 200922Z 13011KT 28/18 A3004 RMK A01 T02800176  RH  053%=      5-min Rain = 0
KMC4 200923Z 13011KT 28/18 A3004 RMK A01 T02800176  RH  053%=      5-min Rain = 0
KMC4 200924Z 13010KT 28/18 A3004 RMK A01 T02800177  RH  054%=      5-min Rain = 0
KMC4 200925Z 13010KT 28/18 A3004 RMK A01 T02800177  RH  054%=      5-min Rain = 0
KMC4 200926Z 13011KT 28/18 A3004 RMK A01 T02790177  RH  054%=      5-min Rain = 0
KMC4 200927Z 13011KT 28/18 A3003 RMK A01 T02790178  RH  054%=      5-min Rain = 0
KMC4 200928Z 13010KT 28/18 A3003 RMK A01 T02790178  RH  054%=      5-min Rain = 0
KMC4 200929Z 13010KT 28/18 A3003 RMK A01 T02790178  RH  054%=      5-min Rain = 0
KMC4 200930Z 13009KT 28/18 A3003 RMK A01 T02780178  RH  054%=      5-min Rain = 0
KMC4 200931Z 13010KT 28/18 A3003 RMK A01 T02780178  RH  055%=      5-min Rain = 0
KMC4 200932Z 14011KT 28/18 A3003 RMK A01 T02770178  RH  055%=      5-min Rain = 0
KMC4 200933Z 13009KT 28/18 A3003 RMK A01 T02770179  RH  055%=      5-min Rain = 0
KMC4 200934Z 13010KT 28/18 A3003 RMK A01 T02770178  RH  055%=      5-min Rain = 0
KMC4 200935Z 13010KT 28/18 A3003 RMK A01 T02770179  RH  055%=      5-min Rain = 0
KMC4 200936Z 13008KT 28/18 A3003 RMK A01 T02770179  RH  055%=      5-min Rain = 0
KMC4 200937Z 13010KT 28/18 A3003 RMK A01 T02770179  RH  055%=      5-min Rain = 0
KMC4 200938Z 13009KT 28/18 A3003 RMK A01 T02760179  RH  055%=      5-min Rain = 0
KMC4 200939Z 13010KT 28/18 A3003 RMK A01 T02760179  RH  056%=      5-min Rain = 0
KMC4 200940Z 13010KT 28/18 A3003 RMK A01 T02760180  RH  056%=      5-min Rain = 0
KMC4 200941Z 13009KT 28/18 A3003 RMK A01 T02760180  RH  056%=      5-min Rain = 0
KMC4 200942Z 13009KT 28/18 A3003 RMK A01 T02760180  RH  056%=      5-min Rain = 0
KMC4 200943Z 13010KT 28/18 A3003 RMK A01 T02760180  RH  056%=      5-min Rain = 0
KMC4 200944Z 13009KT 28/18 A3003 RMK A01 T02760181  RH  056%=      5-min Rain = 0
KMC4 200945Z 13009KT 28/18 A3003 RMK A01 T02750181  RH  056%=      5-min Rain = 0
KMC4 200946Z 13008KT 28/18 A3003 RMK A01 T02750181  RH  057%=      5-min Rain = 0
KMC4 200947Z 13009KT 28/18 A3003 RMK A01 T02750182  RH  057%=      5-min Rain = 0
KMC4 200948Z 13009KT 28/18 A3003 RMK A01 T02750182  RH  057%=      5-min Rain = 0
KMC4 200949Z 13010KT 28/18 A3003 RMK A01 T02750182  RH  057%=      5-min Rain = 0
KMC4 200950Z 13009KT 28/18 A3003 RMK A01 T02750183  RH  057%=      5-min Rain = 0
KMC4 200951Z 13009KT 28/18 A3003 RMK A01 T02750183  RH  057%=      5-min Rain = 0
KMC4 200952Z 13010KT 27/18 A3004 RMK A01 T02740184  RH  058%=      5-min Rain = 0
KMC4 200953Z 13008KT 28/18 A3003 RMK A01 T02750184  RH  058%=      5-min Rain = 0
KMC4 200954Z 13009KT 28/18 A3004 RMK A01 T02750184  RH  058%=      5-min Rain = 0
KMC4 200955Z 13009KT 27/18 A3004 RMK A01 T02740184  RH  058%=      5-min Rain = 0
KMC4 200956Z 13009KT 28/19 A3004 RMK A01 T02750185  RH  058%=      5-min Rain = 0
KMC4 200957Z 13008KT 27/19 A3004 RMK A01 T02740185  RH  058%=      5-min Rain = 0
KMC4 200958Z 13009KT 27/19 A3004 RMK A01 T02740185  RH  058%=      5-min Rain = 0
KMC4 200959Z 13008KT 27/19 A3004 RMK A01 T02740186  RH  059%=      5-min Rain = 0
KMC4 201000Z 13008KT 27/19 A3004 RMK A01 T02740186  RH  059%=      5-min Rain = 0
KMC4 201001Z 12008KT 27/19 A3004 RMK A01 T02730186  RH  059%=      5-min Rain = 0
KMC4 201002Z 12008KT 27/19 A3004 RMK A01 T02730187  RH  059%=      5-min Rain = 0
KMC4 201003Z 13007KT 27/19 A3004 RMK A01 T02730187  RH  059%=      5-min Rain = 0
KMC4 201004Z 12007KT 27/19 A3004 RMK A01 T02730187  RH  059%=      5-min Rain = 0
KMC4 201005Z 12009KT 27/19 A3004 RMK A01 T02730187  RH  059%=      5-min Rain = 0
KMC4 201006Z 12007KT 27/19 A3004 RMK A01 T02730188  RH  059%=      5-min Rain = 0
KMC4 201007Z 12007KT 27/19 A3004 RMK A01 T02730187  RH  059%=      5-min Rain = 0
KMC4 201008Z 12008KT 27/19 A3004 RMK A01 T02730187  RH  059%=      5-min Rain = 0
KMC4 201009Z 12008KT 27/19 A3004 RMK A01 T02730187  RH  060%=      5-min Rain = 0
KMC4 201010Z 12007KT 27/19 A3004 RMK A01 T02730188  RH  060%=      5-min Rain = 0
KMC4 201011Z 11007KT 27/19 A3004 RMK A01 T02730188  RH  060%=      5-min Rain = 0
KMC4 201012Z 12007KT 27/19 A3004 RMK A01 T02730188  RH  060%=      5-min Rain = 0
KMC4 201013Z 12008KT 27/19 A3004 RMK A01 T02730188  RH  060%=      5-min Rain = 0
KMC4 201014Z 12007KT 27/19 A3004 RMK A01 T02730188  RH  060%=      5-min Rain = 0
KMC4 201015Z 12007KT 27/19 A3004 RMK A01 T02730189  RH  060%=      5-min Rain = 0
KMC4 201016Z 11007KT 27/19 A3004 RMK A01 T02730189  RH  060%=      5-min Rain = 0
KMC4 201017Z 11007KT 27/19 A3004 RMK A01 T02720188  RH  060%=      5-min Rain = 0
KMC4 201018Z 11007KT 27/19 A3004 RMK A01 T02720189  RH  060%=      5-min Rain = 0
KMC4 201019Z 11007KT 27/19 A3004 RMK A01 T02720189  RH  061%=      5-min Rain = 0
KMC4 201020Z 12007KT 27/19 A3004 RMK A01 T02720189  RH  061%=      5-min Rain = 0
KMC4 201021Z 12008KT 27/19 A3004 RMK A01 T02710190  RH  061%=      5-min Rain = 0
KMC4 201022Z 11007KT 27/19 A3004 RMK A01 T02710190  RH  061%=      5-min Rain = 0
KMC4 201023Z 12008KT 27/19 A3004 RMK A01 T02710191  RH  061%=      5-min Rain = 0
KMC4 201024Z 12008KT 27/19 A3004 RMK A01 T02710191  RH  062%=      5-min Rain = 0
KMC4 201025Z 12008KT 27/19 A3004 RMK A01 T02710192  RH  062%=      5-min Rain = 0
KMC4 201026Z 12009KT 27/19 A3004 RMK A01 T02700192  RH  062%=      5-min Rain = 0
KMC4 201027Z 12008KT 27/19 A3004 RMK A01 T02710193  RH  062%=      5-min Rain = 0
KMC4 201028Z 12009KT 27/19 A3004 RMK A01 T02710194  RH  063%=      5-min Rain = 0
KMC4 201029Z 12008KT 27/19 A3004 RMK A01 T02710194  RH  063%=      5-min Rain = 0
KMC4 201030Z 12008KT 27/19 A3004 RMK A01 T02710194  RH  063%=      5-min Rain = 0
KMC4 201031Z 12008KT 27/20 A3004 RMK A01 T02710195  RH  063%=      5-min Rain = 0
KMC4 201032Z 13008KT 27/20 A3004 RMK A01 T02710195  RH  063%=      5-min Rain = 0
KMC4 201033Z 12010KT 27/20 A3004 RMK A01 T02700196  RH  064%=      5-min Rain = 0
KMC4 201034Z 12009KT 27/20 A3004 RMK A01 T02700197  RH  064%=      5-min Rain = 0
KMC4 201035Z 12009KT 27/20 A3004 RMK A01 T02700197  RH  064%=      5-min Rain = 0
KMC4 201036Z 12009KT 27/20 A3004 RMK A01 T02700197  RH  064%=      5-min Rain = 0
KMC4 201037Z 12011KT 27/20 A3004 RMK A01 T02700197  RH  064%=      5-min Rain = 0
KMC4 201038Z 12009KT 27/20 A3004 RMK A01 T02700197  RH  064%=      5-min Rain = 0
KMC4 201039Z 12010KT 27/20 A3004 RMK A01 T02700198  RH  064%=      5-min Rain = 0
KMC4 201040Z 12010KT 27/20 A3004 RMK A01 T02710199  RH  065%=      5-min Rain = 0
KMC4 201041Z 12010KT 27/20 A3004 RMK A01 T02700198  RH  065%=      5-min Rain = 0
KMC4 201042Z 12009KT 27/20 A3004 RMK A01 T02700198  RH  065%=      5-min Rain = 0
KMC4 201043Z 12011KT 27/20 A3004 RMK A01 T02700199  RH  065%=      5-min Rain = 0
KMC4 201044Z 13011KT 27/20 A3004 RMK A01 T02700199  RH  065%=      5-min Rain = 0
KMC4 201045Z 13011KT 27/20 A3004 RMK A01 T02700199  RH  065%=      5-min Rain = 0
KMC4 201046Z 12011KT 27/20 A3004 RMK A01 T02710199  RH  065%=      5-min Rain = 0
KMC4 201047Z 13009KT 27/20 A3004 RMK A01 T02700199  RH  065%=      5-min Rain = 0
KMC4 201048Z 12009KT 27/20 A3004 RMK A01 T02700199  RH  065%=      5-min Rain = 0
KMC4 201049Z 13011KT 27/20 A3004 RMK A01 T02690199  RH  065%=      5-min Rain = 0
KMC4 201050Z 13009KT 27/20 A3004 RMK A01 T02690199  RH  065%=      5-min Rain = 0
KMC4 201051Z 13009KT 27/20 A3004 RMK A01 T02690199  RH  065%=      5-min Rain = 0
KMC4 201052Z 13011KT 27/20 A3004 RMK A01 T02680199  RH  066%=      5-min Rain = 0
KMC4 201053Z 13010KT 27/20 A3004 RMK A01 T02680199  RH  066%=      5-min Rain = 0
KMC4 201054Z 12009KT 27/20 A3004 RMK A01 T02680199  RH  066%=      5-min Rain = 0
KMC4 201055Z 13010KT 27/20 A3004 RMK A01 T02680200  RH  066%=      5-min Rain = 0
KMC4 201056Z 13009KT 27/20 A3004 RMK A01 T02680200  RH  066%=      5-min Rain = 0
KMC4 201057Z 13010KT 27/20 A3004 RMK A01 T02680200  RH  066%=      5-min Rain = 0
KMC4 201058Z 13010KT 27/20 A3004 RMK A01 T02680200  RH  066%=      5-min Rain = 0
KMC4 201059Z 13011KT 27/20 A3004 RMK A01 T02680201  RH  067%=      5-min Rain = 0
KMC4 201100Z 13010KT 27/20 A3004 RMK A01 T02670200  RH  067%=      5-min Rain = 0
KMC4 201101Z 13009KT 27/20 A3004 RMK A01 T02680201  RH  067%=      5-min Rain = 0
KMC4 201102Z 13009KT 27/20 A3004 RMK A01 T02670201  RH  067%=      5-min Rain = 0
KMC4 201103Z 13010KT 27/20 A3004 RMK A01 T02670201  RH  067%=      5-min Rain = 0
KMC4 201104Z 13010KT 27/20 A3004 RMK A01 T02670201  RH  067%=      5-min Rain = 0
KMC4 201105Z 13009KT 27/20 A3004 RMK A01 T02670201  RH  067%=      5-min Rain = 0
KMC4 201106Z 13009KT 27/20 A3004 RMK A01 T02670202  RH  067%=      5-min Rain = 0
KMC4 201107Z 13011KT 27/20 A3004 RMK A01 T02670202  RH  068%=      5-min Rain = 0
KMC4 201108Z 13010KT 27/20 A3004 RMK A01 T02660202  RH  068%=      5-min Rain = 0
KMC4 201109Z 13010KT 27/20 A3004 RMK A01 T02660202  RH  068%=      5-min Rain = 0
KMC4 201110Z 12010KT 27/20 A3004 RMK A01 T02660202  RH  068%=      5-min Rain = 0
KMC4 201111Z 13009KT 27/20 A3004 RMK A01 T02660202  RH  068%=      5-min Rain = 0
KMC4 201112Z 13008KT 27/20 A3004 RMK A01 T02660202  RH  068%=      5-min Rain = 0
KMC4 201113Z 13009KT 27/20 A3004 RMK A01 T02660202  RH  068%=      5-min Rain = 0
KMC4 201114Z 13011KT 27/20 A3004 RMK A01 T02660203  RH  068%=      5-min Rain = 0
KMC4 201115Z 13011KT 27/20 A3004 RMK A01 T02660203  RH  068%=      5-min Rain = 0
KMC4 201116Z 13009KT 27/20 A3004 RMK A01 T02660203  RH  068%=      5-min Rain = 0
KMC4 201117Z 13011KT 27/20 A3004 RMK A01 T02660203  RH  068%=      5-min Rain = 0
KMC4 201118Z 13012KT 27/20 A3004 RMK A01 T02660203  RH  068%=      5-min Rain = 0
KMC4 201119Z 13009KT 27/20 A3004 RMK A01 T02660203  RH  068%=      5-min Rain = 0
KMC4 201120Z 13009KT 27/20 A3004 RMK A01 T02660203  RH  068%=      5-min Rain = 0
KMC4 201121Z 13011KT 27/20 A3004 RMK A01 T02660204  RH  069%=      5-min Rain = 0
KMC4 201122Z 13010KT 27/20 A3004 RMK A01 T02660204  RH  069%=      5-min Rain = 0
KMC4 201123Z 13011KT 27/20 A3004 RMK A01 T02660204  RH  069%=      5-min Rain = 0
KMC4 201124Z 13008KT 27/20 A3005 RMK A01 T02660204  RH  069%=      5-min Rain = 0
KMC4 201125Z 13009KT 27/20 A3005 RMK A01 T02650204  RH  069%=      5-min Rain = 0
KMC4 201126Z 12009KT 27/20 A3005 RMK A01 T02650204  RH  069%=      5-min Rain = 0
KMC4 201127Z 13009KT 27/20 A3005 RMK A01 T02650204  RH  069%=      5-min Rain = 0
KMC4 201128Z 13009KT 27/20 A3005 RMK A01 T02650204  RH  069%=      5-min Rain = 0
KMC4 201129Z 12008KT 27/20 A3005 RMK A01 T02650204  RH  069%=      5-min Rain = 0
KMC4 201130Z 13009KT 27/20 A3005 RMK A01 T02650204  RH  069%=      5-min Rain = 0
KMC4 201131Z 12008KT 27/20 A3005 RMK A01 T02650204  RH  069%=      5-min Rain = 0
KMC4 201132Z 13009KT 27/20 A3005 RMK A01 T02650204  RH  069%=      5-min Rain = 0
KMC4 201133Z 13009KT 26/20 A3005 RMK A01 T02640204  RH  069%=      5-min Rain = 0
KMC4 201134Z 12008KT 26/20 A3005 RMK A01 T02640204  RH  069%=      5-min Rain = 0
KMC4 201135Z 13008KT 26/20 A3005 RMK A01 T02640204  RH  070%=      5-min Rain = 0
KMC4 201136Z 13007KT 26/21 A3005 RMK A01 T02640205  RH  070%=      5-min Rain = 0
KMC4 201137Z 13006KT 26/20 A3005 RMK A01 T02640204  RH  070%=      5-min Rain = 0
KMC4 201138Z 13008KT 26/20 A3005 RMK A01 T02640204  RH  070%=      5-min Rain = 0
KMC4 201139Z 13009KT 26/21 A3005 RMK A01 T02630205  RH  070%=      5-min Rain = 0
KMC4 201140Z 13009KT 26/21 A3005 RMK A01 T02630205  RH  070%=      5-min Rain = 0
KMC4 201141Z 13009KT 26/21 A3005 RMK A01 T02630206  RH  070%=      5-min Rain = 0
KMC4 201142Z 13008KT 26/21 A3005 RMK A01 T02630206  RH  070%=      5-min Rain = 0
KMC4 201143Z 14008KT 26/21 A3005 RMK A01 T02630205  RH  071%=      5-min Rain = 0
KMC4 201144Z 13009KT 26/21 A3005 RMK A01 T02630206  RH  071%=      5-min Rain = 0
KMC4 201145Z 13010KT 26/21 A3005 RMK A01 T02620206  RH  071%=      5-min Rain = 0
KMC4 201146Z 13009KT 26/21 A3005 RMK A01 T02620206  RH  071%=      5-min Rain = 0
KMC4 201147Z 13008KT 26/21 A3005 RMK A01 T02620206  RH  071%=      5-min Rain = 0
KMC4 201148Z 13010KT 26/21 A3005 RMK A01 T02630207  RH  071%=      5-min Rain = 0
KMC4 201149Z 13010KT 26/21 A3005 RMK A01 T02620207  RH  071%=      5-min Rain = 0
KMC4 201150Z 13008KT 26/21 A3005 RMK A01 T02620207  RH  071%=      5-min Rain = 0
KMC4 201151Z 13010KT 26/21 A3005 RMK A01 T02620206  RH  071%=      5-min Rain = 0
KMC4 201152Z 13012KT 26/21 A3005 RMK A01 T02620207  RH  072%=      5-min Rain = 0
KMC4 201153Z 13010KT 26/21 A3005 RMK A01 T02620207  RH  072%=      5-min Rain = 0
KMC4 201154Z 13009KT 26/21 A3005 RMK A01 T02620207  RH  072%=      5-min Rain = 0
KMC4 201155Z 12010KT 26/21 A3005 RMK A01 T02620207  RH  072%=      5-min Rain = 0
KMC4 201156Z 13009KT 26/21 A3005 RMK A01 T02620207  RH  072%=      5-min Rain = 0
KMC4 201157Z 13009KT 26/21 A3005 RMK A01 T02620207  RH  072%=      5-min Rain = 0
KMC4 201158Z 13011KT 26/21 A3005 RMK A01 T02620208  RH  072%=      5-min Rain = 0
KMC4 201159Z 13010KT 26/21 A3005 RMK A01 T02610207  RH  072%=      5-min Rain = 0
KMC4 201200Z 13011KT 26/21 A3005 RMK A01 T02610208  RH  072%=      5-min Rain = 0
KMC4 201201Z 13011KT 26/21 A3005 RMK A01 T02620208  RH  072%=      5-min Rain = 0
KMC4 201202Z 13010KT 26/21 A3005 RMK A01 T02610208  RH  072%=      5-min Rain = 0
KMC4 201203Z 13010KT 26/21 A3005 RMK A01 T02610208  RH  072%=      5-min Rain = 0
KMC4 201204Z 13010KT 26/21 A3005 RMK A01 T02610208  RH  073%=      5-min Rain = 0
KMC4 201205Z 13009KT 26/21 A3005 RMK A01 T02610208  RH  073%=      5-min Rain = 0
KMC4 201206Z 13010KT 26/21 A3005 RMK A01 T02610208  RH  073%=      5-min Rain = 0
KMC4 201207Z 13010KT 26/21 A3006 RMK A01 T02600208  RH  073%=      5-min Rain = 0
KMC4 201208Z 13011KT 26/21 A3006 RMK A01 T02600209  RH  073%=      5-min Rain = 0
KMC4 201209Z 13010KT 26/21 A3006 RMK A01 T02600209  RH  073%=      5-min Rain = 0
KMC4 201210Z 13009KT 26/21 A3006 RMK A01 T02600209  RH  073%=      5-min Rain = 0
KMC4 201211Z 13010KT 26/21 A3006 RMK A01 T02600209  RH  073%=      5-min Rain = 0
KMC4 201212Z 13010KT 26/21 A3006 RMK A01 T02600209  RH  074%=      5-min Rain = 0
KMC4 201213Z 13010KT 26/21 A3006 RMK A01 T02600209  RH  074%=      5-min Rain = 0
KMC4 201214Z 13010KT 26/21 A3006 RMK A01 T02600210  RH  074%=      5-min Rain = 0
KMC4 201215Z 13009KT 26/21 A3006 RMK A01 T02600210  RH  074%=      5-min Rain = 0
KMC4 201216Z 13010KT 26/21 A3006 RMK A01 T02600209  RH  074%=      5-min Rain = 0
KMC4 201217Z 13010KT 26/21 A3006 RMK A01 T02600209  RH  074%=      5-min Rain = 0
KMC4 201218Z 13009KT 26/21 A3006 RMK A01 T02600209  RH  074%=      5-min Rain = 0
KMC4 201219Z 13010KT 26/21 A3006 RMK A01 T02600210  RH  074%=      5-min Rain = 0
KMC4 201220Z 14009KT 26/21 A3006 RMK A01 T02600210  RH  074%=      5-min Rain = 0
KMC4 201221Z 13009KT 26/21 A3006 RMK A01 T02590210  RH  074%=      5-min Rain = 0
KMC4 201222Z 13008KT 26/21 A3006 RMK A01 T02590209  RH  074%=      5-min Rain = 0
KMC4 201223Z 13008KT 26/21 A3006 RMK A01 T02590209  RH  074%=      5-min Rain = 0
KMC4 201224Z 13010KT 26/21 A3006 RMK A01 T02590209  RH  074%=      5-min Rain = 0
KMC4 201225Z 13009KT 26/21 A3006 RMK A01 T02590209  RH  074%=      5-min Rain = 0
KMC4 201226Z 13010KT 26/21 A3006 RMK A01 T02590209  RH  074%=      5-min Rain = 0
KMC4 201227Z 13010KT 26/21 A3006 RMK A01 T02590209  RH  074%=      5-min Rain = 0
KMC4 201228Z 13010KT 26/21 A3006 RMK A01 T02590209  RH  074%=      5-min Rain = 0
KMC4 201229Z 13009KT 26/21 A3006 RMK A01 T02590209  RH  074%=      5-min Rain = 0
KMC4 201230Z 13009KT 26/21 A3006 RMK A01 T02590209  RH  074%=      5-min Rain = 0
KMC4 201231Z 13009KT 26/21 A3007 RMK A01 T02590209  RH  074%=      5-min Rain = 0
KMC4 201232Z 13010KT 26/21 A3007 RMK A01 T02590209  RH  074%=      5-min Rain = 0
KMC4 201233Z 13010KT 26/21 A3007 RMK A01 T02590209  RH  074%=      5-min Rain = 0
KMC4 201234Z 13008KT 26/21 A3007 RMK A01 T02590209  RH  074%=      5-min Rain = 0
KMC4 201235Z 13008KT 26/21 A3007 RMK A01 T02590208  RH  074%=      5-min Rain = 0
KMC4 201236Z 13009KT 26/21 A3007 RMK A01 T02590208  RH  074%=      5-min Rain = 0
KMC4 201237Z 13008KT 26/21 A3007 RMK A01 T02590208  RH  074%=      5-min Rain = 0
KMC4 201238Z 13008KT 26/21 A3007 RMK A01 T02590209  RH  074%=      5-min Rain = 0
KMC4 201239Z 13009KT 26/21 A3007 RMK A01 T02590209  RH  074%=      5-min Rain = 0
KMC4 201240Z 13009KT 26/21 A3007 RMK A01 T02590209  RH  074%=      5-min Rain = 0
KMC4 201241Z 13009KT 26/21 A3007 RMK A01 T02590209  RH  074%=      5-min Rain = 0
KMC4 201242Z 13009KT 26/21 A3007 RMK A01 T02590209  RH  074%=      5-min Rain = 0
KMC4 201243Z 12009KT 26/21 A3007 RMK A01 T02590209  RH  074%=      5-min Rain = 0
KMC4 201244Z 13008KT 26/21 A3007 RMK A01 T02600210  RH  074%=      5-min Rain = 0
KMC4 201245Z 13008KT 26/21 A3007 RMK A01 T02600209  RH  074%=      5-min Rain = 0
KMC4 201246Z 13009KT 26/21 A3007 RMK A01 T02600209  RH  074%=      5-min Rain = 0
KMC4 201247Z 13009KT 26/21 A3007 RMK A01 T02600210  RH  074%=      5-min Rain = 0
KMC4 201248Z 13008KT 26/21 A3007 RMK A01 T02600210  RH  074%=      5-min Rain = 0
KMC4 201249Z 13009KT 26/21 A3007 RMK A01 T02600210  RH  074%=      5-min Rain = 0
KMC4 201250Z 13010KT 26/21 A3007 RMK A01 T02610210  RH  074%=      5-min Rain = 0
KMC4 201251Z 14010KT 26/21 A3007 RMK A01 T02610210  RH  074%=      5-min Rain = 0
KMC4 201252Z 13011KT 26/21 A3007 RMK A01 T02610210  RH  074%=      5-min Rain = 0
KMC4 201253Z 14011KT 26/21 A3007 RMK A01 T02610210  RH  073%=      5-min Rain = 0
KMC4 201254Z 13011KT 26/21 A3007 RMK A01 T02620210  RH  073%=      5-min Rain = 0
KMC4 201255Z 13010KT 26/21 A3007 RMK A01 T02620210  RH  073%=      5-min Rain = 0
KMC4 201256Z 14009KT 26/21 A3007 RMK A01 T02620210  RH  073%=      5-min Rain = 0
KMC4 201257Z 14009KT 26/21 A3007 RMK A01 T02620210  RH  073%=      5-min Rain = 0
KMC4 201258Z 14009KT 26/21 A3007 RMK A01 T02620210  RH  073%=      5-min Rain = 0
KMC4 201259Z 13011KT 26/21 A3007 RMK A01 T02620210  RH  073%=      5-min Rain = 0
KMC4 201300Z 14011KT 26/21 A3007 RMK A01 T02620210  RH  073%=      5-min Rain = 0
KMC4 201301Z 14009KT 26/21 A3007 RMK A01 T02630210  RH  073%=      5-min Rain = 0
KMC4 201302Z 13009KT 26/21 A3007 RMK A01 T02630210  RH  073%=      5-min Rain = 0
KMC4 201303Z 14013KT 26/21 A3007 RMK A01 T02630211  RH  073%=      5-min Rain = 0
KMC4 201304Z 14011KT 26/21 A3007 RMK A01 T02630211  RH  073%=      5-min Rain = 0
KMC4 201305Z 13009KT 26/21 A3007 RMK A01 T02630210  RH  073%=      5-min Rain = 0
KMC4 201306Z 13011KT 26/21 A3007 RMK A01 T02640211  RH  073%=      5-min Rain = 0
KMC4 201307Z 13010KT 26/21 A3007 RMK A01 T02640211  RH  072%=      5-min Rain = 0
KMC4 201308Z 13010KT 26/21 A3007 RMK A01 T02640211  RH  072%=      5-min Rain = 0
KMC4 201309Z 13013KT 27/21 A3007 RMK A01 T02650211  RH  072%=      5-min Rain = 0
KMC4 201310Z 14011KT 27/21 A3007 RMK A01 T02650211  RH  072%=      5-min Rain = 0
KMC4 201311Z 13011KT 27/21 A3007 RMK A01 T02650211  RH  072%=      5-min Rain = 0
KMC4 201312Z 13009KT 27/21 A3007 RMK A01 T02650211  RH  072%=      5-min Rain = 0
KMC4 201313Z 13010KT 27/21 A3007 RMK A01 T02660211  RH  072%=      5-min Rain = 0
KMC4 201314Z 13009KT 27/21 A3007 RMK A01 T02660210  RH  072%=      5-min Rain = 0
KMC4 201315Z 14010KT 27/21 A3007 RMK A01 T02660210  RH  072%=      5-min Rain = 0
KMC4 201316Z 14010KT 27/21 A3007 RMK A01 T02660210  RH  071%=      5-min Rain = 0
KMC4 201317Z 14010KT 27/21 A3007 RMK A01 T02660211  RH  071%=      5-min Rain = 0
KMC4 201318Z 14010KT 27/21 A3007 RMK A01 T02660211  RH  071%=      5-min Rain = 0
KMC4 201319Z 14010KT 27/21 A3007 RMK A01 T02660210  RH  071%=      5-min Rain = 0
KMC4 201320Z 14009KT 27/21 A3008 RMK A01 T02670211  RH  071%=      5-min Rain = 0
KMC4 201321Z 14008KT 27/21 A3008 RMK A01 T02670211  RH  071%=      5-min Rain = 0
KMC4 201322Z 14008KT 27/21 A3008 RMK A01 T02680211  RH  071%=      5-min Rain = 0
KMC4 201323Z 14011KT 27/21 A3008 RMK A01 T02680211  RH  071%=      5-min Rain = 0
KMC4 201324Z 14008KT 27/21 A3008 RMK A01 T02680211  RH  071%=      5-min Rain = 0
KMC4 201325Z 13009KT 27/21 A3008 RMK A01 T02680211  RH  071%=      5-min Rain = 0
KMC4 201326Z 13009KT 27/21 A3008 RMK A01 T02680211  RH  071%=      5-min Rain = 0
KMC4 201327Z 14010KT 27/21 A3008 RMK A01 T02690211  RH  071%=      5-min Rain = 0
KMC4 201328Z 14009KT 27/21 A3008 RMK A01 T02690211  RH  071%=      5-min Rain = 0
KMC4 201329Z 13009KT 27/21 A3008 RMK A01 T02690211  RH  071%=      5-min Rain = 0
KMC4 201330Z 14008KT 27/21 A3008 RMK A01 T02690211  RH  071%=      5-min Rain = 0
KMC4 201331Z 15009KT 27/21 A3008 RMK A01 T02700211  RH  070%=      5-min Rain = 0
KMC4 201332Z 15009KT 27/21 A3008 RMK A01 T02710212  RH  070%=      5-min Rain = 0
KMC4 201333Z 13009KT 27/21 A3008 RMK A01 T02700212  RH  070%=      5-min Rain = 0
KMC4 201334Z 14009KT 27/21 A3008 RMK A01 T02700211  RH  070%=      5-min Rain = 0
KMC4 201335Z 13008KT 27/21 A3008 RMK A01 T02710211  RH  070%=      5-min Rain = 0
KMC4 201336Z 13009KT 27/21 A3008 RMK A01 T02710211  RH  070%=      5-min Rain = 0
KMC4 201337Z 14011KT 27/21 A3008 RMK A01 T02720211  RH  070%=      5-min Rain = 0
KMC4 201338Z 15011KT 27/21 A3008 RMK A01 T02710211  RH  070%=      5-min Rain = 0
KMC4 201339Z 14011KT 27/21 A3008 RMK A01 T02710211  RH  070%=      5-min Rain = 0
KMC4 201340Z 14011KT 27/21 A3008 RMK A01 T02710211  RH  070%=      5-min Rain = 0
KMC4 201341Z 15011KT 27/21 A3008 RMK A01 T02710211  RH  070%=      5-min Rain = 0
KMC4 201342Z 14012KT 27/21 A3008 RMK A01 T02710211  RH  070%=      5-min Rain = 0
KMC4 201343Z 14012KT 27/21 A3008 RMK A01 T02710211  RH  070%=      5-min Rain = 0
KMC4 201344Z 13013KT 27/21 A3008 RMK A01 T02710211  RH  069%=      5-min Rain = 0
KMC4 201345Z 13013KT 27/21 A3008 RMK A01 T02720211  RH  069%=      5-min Rain = 0
KMC4 201346Z 13012KT 27/21 A3008 RMK A01 T02720210  RH  069%=      5-min Rain = 0
KMC4 201347Z 14014KT 27/21 A3008 RMK A01 T02720210  RH  069%=      5-min Rain = 0
KMC4 201348Z 14012KT 27/21 A3008 RMK A01 T02720210  RH  069%=      5-min Rain = 0
KMC4 201349Z 13014KT 27/21 A3008 RMK A01 T02720210  RH  069%=      5-min Rain = 0
KMC4 201350Z 14011KT 27/21 A3008 RMK A01 T02720210  RH  069%=      5-min Rain = 0
KMC4 201351Z 14010KT 27/21 A3008 RMK A01 T02730211  RH  069%=      5-min Rain = 0
KMC4 201352Z 14011KT 27/21 A3008 RMK A01 T02730210  RH  069%=      5-min Rain = 0
KMC4 201353Z 13011KT 27/21 A3008 RMK A01 T02740211  RH  069%=      5-min Rain = 0
KMC4 201354Z 14011KT 27/21 A3008 RMK A01 T02740211  RH  068%=      5-min Rain = 0
KMC4 201355Z 14013KT 28/21 A3008 RMK A01 T02750211  RH  068%=      5-min Rain = 0
KMC4 201356Z 14012KT 27/21 A3008 RMK A01 T02740211  RH  068%=      5-min Rain = 0
KMC4 201357Z 14014KT 28/21 A3008 RMK A01 T02750211  RH  068%=      5-min Rain = 0
KMC4 201358Z 14014KT 27/21 A3008 RMK A01 T02740210  RH  068%=      5-min Rain = 0
KMC4 201359Z 14013KT 27/21 A3008 RMK A01 T02740210  RH  068%=      5-min Rain = 0
KMC4 201400Z 14012KT 27/21 A3008 RMK A01 T02740210  RH  068%=      5-min Rain = 0
KMC4 201401Z 15011KT 28/21 A3008 RMK A01 T02750210  RH  068%=      5-min Rain = 0
KMC4 201402Z 15012KT 28/21 A3008 RMK A01 T02750211  RH  068%=      5-min Rain = 0
KMC4 201403Z 15010KT 28/21 A3008 RMK A01 T02750211  RH  068%=      5-min Rain = 0
KMC4 201404Z 13013KT 28/21 A3008 RMK A01 T02750211  RH  068%=      5-min Rain = 0
KMC4 201405Z 13011KT 28/21 A3008 RMK A01 T02760211  RH  067%=      5-min Rain = 0
KMC4 201406Z 14010KT 28/21 A3008 RMK A01 T02770211  RH  067%=      5-min Rain = 0
KMC4 201407Z 13010KT 28/21 A3008 RMK A01 T02790211  RH  067%=      5-min Rain = 0
KMC4 201408Z 13011KT 28/21 A3008 RMK A01 T02800211  RH  066%=      5-min Rain = 0
KMC4 201409Z 13012KT 28/21 A3007 RMK A01 T02800210  RH  066%=      5-min Rain = 0
KMC4 201410Z 14010KT 28/21 A3007 RMK A01 T02800211  RH  066%=      5-min Rain = 0
KMC4 201411Z 15009KT 28/21 A3008 RMK A01 T02790211  RH  067%=      5-min Rain = 0
KMC4 201412Z 14008KT 28/21 A3008 RMK A01 T02790212  RH  067%=      5-min Rain = 0
KMC4 201413Z 16009KT 28/21 A3008 RMK A01 T02800212  RH  066%=      5-min Rain = 0
KMC4 201414Z 14009KT 28/21 A3008 RMK A01 T02800211  RH  066%=      5-min Rain = 0
KMC4 201415Z 15008KT 28/21 A3008 RMK A01 T02810211  RH  066%=      5-min Rain = 0
KMC4 201416Z 14009KT 28/21 A3008 RMK A01 T02800211  RH  066%=      5-min Rain = 0
KMC4 201417Z 15008KT 28/21 A3008 RMK A01 T02800211  RH  066%=      5-min Rain = 0
KMC4 201418Z 15008KT 28/21 A3008 RMK A01 T02790211  RH  067%=      5-min Rain = 0
KMC4 201419Z 16010KT 28/21 A3008 RMK A01 T02800211  RH  066%=      5-min Rain = 0
KMC4 201420Z 14006KT 28/21 A3008 RMK A01 T02810212  RH  066%=      5-min Rain = 0
KMC4 201421Z 15008KT 28/21 A3008 RMK A01 T02820213  RH  066%=      5-min Rain = 0
KMC4 201422Z 16008KT 28/21 A3008 RMK A01 T02840212  RH  065%=      5-min Rain = 0
KMC4 201423Z 15010KT 29/21 A3008 RMK A01 T02850211  RH  064%=      5-min Rain = 0
KMC4 201424Z 16010KT 29/21 A3008 RMK A01 T02850209  RH  064%=      5-min Rain = 0
KMC4 201425Z 16010KT 28/21 A3008 RMK A01 T02830210  RH  065%=      5-min Rain = 0
KMC4 201426Z 16010KT 28/21 A3008 RMK A01 T02820211  RH  065%=      5-min Rain = 0
KMC4 201427Z 16010KT 28/21 A3008 RMK A01 T02810210  RH  065%=      5-min Rain = 0
KMC4 201428Z 15011KT 28/21 A3008 RMK A01 T02810210  RH  065%=      5-min Rain = 0
KMC4 201429Z 15013KT 28/21 A3008 RMK A01 T02820209  RH  065%=      5-min Rain = 0
KMC4 201430Z 16012KT 28/21 A3008 RMK A01 T02820209  RH  065%=      5-min Rain = 0
KMC4 201431Z 16011KT 28/21 A3008 RMK A01 T02810209  RH  065%=      5-min Rain = 0
KMC4 201432Z 16012KT 28/21 A3008 RMK A01 T02820209  RH  065%=      5-min Rain = 0
KMC4 201433Z 15011KT 28/21 A3008 RMK A01 T02820209  RH  065%=      5-min Rain = 0
KMC4 201434Z 17011KT 28/21 A3008 RMK A01 T02830209  RH  064%=      5-min Rain = 0
KMC4 201435Z 16010KT 28/21 A3008 RMK A01 T02830209  RH  064%=      5-min Rain = 0
KMC4 201436Z 15010KT 28/21 A3008 RMK A01 T02830210  RH  065%=      5-min Rain = 0
KMC4 201437Z 15010KT 28/21 A3008 RMK A01 T02830210  RH  064%=      5-min Rain = 0
KMC4 201438Z 14010KT 28/21 A3008 RMK A01 T02840210  RH  064%=      5-min Rain = 0
KMC4 201439Z 14010KT 29/21 A3008 RMK A01 T02850210  RH  064%=      5-min Rain = 0
KMC4 201440Z 13010KT 29/21 A3008 RMK A01 T02860210  RH  064%=      5-min Rain = 0
KMC4 201441Z 14013KT 29/21 A3008 RMK A01 T02870210  RH  063%=      5-min Rain = 0
KMC4 201442Z 15010KT 29/21 A3008 RMK A01 T02870210  RH  063%=      5-min Rain = 0
KMC4 201443Z 14011KT 29/21 A3008 RMK A01 T02860211  RH  064%=      5-min Rain = 0
KMC4 201444Z 15009KT 29/21 A3008 RMK A01 T02860209  RH  063%=      5-min Rain = 0
KMC4 201445Z 15009KT 29/21 A3008 RMK A01 T02860209  RH  063%=      5-min Rain = 0
KMC4 201446Z 15009KT 29/21 A3008 RMK A01 T02870210  RH  063%=      5-min Rain = 0
KMC4 201447Z 14011KT 29/21 A3008 RMK A01 T02880210  RH  063%=      5-min Rain = 0
KMC4 201448Z 13012KT 29/21 A3008 RMK A01 T02890210  RH  062%=      5-min Rain = 0
KMC4 201449Z 14011KT 29/21 A3008 RMK A01 T02890209  RH  062%=      5-min Rain = 0
KMC4 201450Z 14011KT 29/21 A3008 RMK A01 T02880209  RH  062%=      5-min Rain = 0
KMC4 201451Z 14010KT 29/21 A3008 RMK A01 T02880210  RH  063%=      5-min Rain = 0
KMC4 201452Z 13011KT 29/21 A3008 RMK A01 T02900210  RH  062%=      5-min Rain = 0
KMC4 201453Z 13012KT 29/21 A3008 RMK A01 T02910209  RH  061%=      5-min Rain = 0
KMC4 201454Z 14013KT 29/21 A3008 RMK A01 T02910210  RH  061%=      5-min Rain = 0
KMC4 201455Z 15010KT 29/21 A3008 RMK A01 T02900209  RH  062%=      5-min Rain = 0
KMC4 201456Z 14010KT 29/21 A3008 RMK A01 T02880209  RH  062%=      5-min Rain = 0
KMC4 201457Z 14011KT 29/21 A3008 RMK A01 T02880209  RH  062%=      5-min Rain = 0
KMC4 201458Z 16010KT 29/21 A3008 RMK A01 T02900209  RH  062%=      5-min Rain = 0
KMC4 201459Z 16009KT 29/21 A3008 RMK A01 T02900209  RH  062%=      5-min Rain = 0
KMC4 201500Z 15009KT 29/21 A3008 RMK A01 T02900210  RH  062%=      5-min Rain = 0
KMC4 201501Z 16010KT 29/21 A3008 RMK A01 T02920209  RH  061%=      5-min Rain = 0
KMC4 201502Z 16009KT 29/21 A3008 RMK A01 T02920209  RH  061%=      5-min Rain = 0
KMC4 201503Z 16012KT 29/21 A3008 RMK A01 T02900208  RH  061%=      5-min Rain = 0
KMC4 201504Z 16009KT 29/21 A3008 RMK A01 T02900208  RH  061%=      5-min Rain = 0
KMC4 201505Z 17007KT 29/21 A3008 RMK A01 T02890209  RH  062%=      5-min Rain = 0
KMC4 201506Z 16010KT 29/21 A3008 RMK A01 T02890210  RH  062%=      5-min Rain = 0
KMC4 201507Z 14008KT 29/21 A3008 RMK A01 T02920211  RH  062%=      5-min Rain = 0
KMC4 201508Z 14009KT 30/21 A3008 RMK A01 T02960210  RH  060%=      5-min Rain = 0
KMC4 201509Z 15013KT 30/21 A3008 RMK A01 T02980208  RH  059%=      5-min Rain = 0
KMC4 201510Z 15010KT 30/21 A3008 RMK A01 T02960207  RH  059%=      5-min Rain = 0
KMC4 201511Z 15009KT 30/21 A3008 RMK A01 T02950207  RH  059%=      5-min Rain = 0
KMC4 201512Z 15010KT 30/21 A3008 RMK A01 T02960208  RH  059%=      5-min Rain = 0
KMC4 201513Z 15009KT 30/21 A3008 RMK A01 T02960208  RH  059%=      5-min Rain = 0
KMC4 201514Z 13011KT 30/21 A3008 RMK A01 T02960207  RH  059%=      5-min Rain = 0
KMC4 201515Z 15010KT 30/21 A3008 RMK A01 T02960206  RH  058%=      5-min Rain = 0
KMC4 201516Z 16009KT 30/21 A3008 RMK A01 T02960206  RH  058%=      5-min Rain = 0
KMC4 201517Z 16009KT 30/21 A3008 RMK A01 T02960208  RH  059%=      5-min Rain = 0
KMC4 201518Z 15011KT 30/21 A3008 RMK A01 T02960208  RH  059%=      5-min Rain = 0
KMC4 201519Z 14010KT 30/21 A3008 RMK A01 T02960208  RH  059%=      5-min Rain = 0
KMC4 201520Z 15009KT 30/21 A3008 RMK A01 T02970208  RH  059%=      5-min Rain = 0
KMC4 201521Z 14010KT 30/21 A3008 RMK A01 T02990208  RH  058%=      5-min Rain = 0
KMC4 201522Z 13012KT 30/21 A3008 RMK A01 T03010206  RH  057%=      5-min Rain = 0
KMC4 201523Z 16012KT 30/21 A3008 RMK A01 T03020206  RH  056%=      5-min Rain = 0
KMC4 201524Z 18009KT 30/21 A3008 RMK A01 T03010207  RH  057%=      5-min Rain = 0
KMC4 201525Z 17010KT 30/21 A3008 RMK A01 T03000206  RH  057%=      5-min Rain = 0
KMC4 201526Z 16008KT 30/21 A3008 RMK A01 T02980207  RH  058%=      5-min Rain = 0
KMC4 201527Z 15009KT 30/21 A3008 RMK A01 T02990208  RH  058%=      5-min Rain = 0
KMC4 201528Z 15010KT 30/21 A3008 RMK A01 T03010208  RH  058%=      5-min Rain = 0
KMC4 201529Z 15008KT 30/21 A3008 RMK A01 T03030207  RH  057%=      5-min Rain = 0
KMC4 201530Z 15009KT 30/21 A3008 RMK A01 T03040206  RH  056%=      5-min Rain = 0
KMC4 201531Z 15008KT 30/21 A3008 RMK A01 T03040207  RH  056%=      5-min Rain = 0
KMC4 201532Z 15006KT 30/21 A3008 RMK A01 T03030207  RH  057%=      5-min Rain = 0
KMC4 201533Z 16009KT 30/21 A3008 RMK A01 T03040207  RH  056%=      5-min Rain = 0
KMC4 201534Z 14010KT 30/21 A3008 RMK A01 T03040206  RH  056%=      5-min Rain = 0
KMC4 201535Z 15009KT 31/21 A3008 RMK A01 T03060205  RH  055%=      5-min Rain = 0
KMC4 201536Z 14013KT 31/21 A3008 RMK A01 T03060205  RH  055%=      5-min Rain = 0
KMC4 201537Z 15011KT 31/20 A3008 RMK A01 T03080204  RH  054%=      5-min Rain = 0
KMC4 201538Z 15008KT 31/20 A3008 RMK A01 T03060204  RH  055%=      5-min Rain = 0
KMC4 201539Z 14012KT 31/20 A3008 RMK A01 T03060203  RH  054%=      5-min Rain = 0
KMC4 201540Z 15013KT 31/20 A3008 RMK A01 T03070203  RH  054%=      5-min Rain = 0
KMC4 201541Z 16011KT 31/20 A3008 RMK A01 T03070203  RH  054%=      5-min Rain = 0
KMC4 201542Z 16009KT 31/20 A3008 RMK A01 T03050202  RH  054%=      5-min Rain = 0
KMC4 201543Z 17009KT 31/20 A3008 RMK A01 T03050203  RH  054%=      5-min Rain = 0
KMC4 201544Z 18012KT 31/20 A3008 RMK A01 T03050204  RH  055%=      5-min Rain = 0
KMC4 201545Z 17009KT 31/20 A3008 RMK A01 T03050204  RH  055%=      5-min Rain = 0
KMC4 201546Z 17008KT 31/20 A3008 RMK A01 T03050204  RH  055%=      5-min Rain = 0
KMC4 201547Z 18008KT 31/20 A3008 RMK A01 T03050204  RH  055%=      5-min Rain = 0
KMC4 201548Z 13011KT 31/20 A3008 RMK A01 T03060203  RH  054%=      5-min Rain = 0
KMC4 201549Z 12010KT 31/20 A3008 RMK A01 T03070203  RH  054%=      5-min Rain = 0
KMC4 201550Z 13012KT 31/20 A3008 RMK A01 T03080202  RH  053%=      5-min Rain = 0
KMC4 201551Z 14008KT 31/20 A3008 RMK A01 T03090202  RH  053%=      5-min Rain = 0
KMC4 201552Z 16012KT 31/20 A3008 RMK A01 T03090202  RH  053%=      5-min Rain = 0
KMC4 201553Z 15012KT 31/20 A3008 RMK A01 T03100201  RH  052%=      5-min Rain = 0
KMC4 201554Z 15010KT 31/20 A3008 RMK A01 T03100201  RH  052%=      5-min Rain = 0
KMC4 201555Z 15010KT 31/20 A3008 RMK A01 T03110202  RH  052%=      5-min Rain = 0
KMC4 201556Z 15010KT 31/20 A3008 RMK A01 T03110202  RH  052%=      5-min Rain = 0
KMC4 201557Z 14010KT 31/20 A3008 RMK A01 T03120201  RH  052%=      5-min Rain = 0
KMC4 201558Z 17008KT 31/20 A3008 RMK A01 T03110201  RH  052%=      5-min Rain = 0
KMC4 201559Z 17007KT 31/20 A3008 RMK A01 T03110201  RH  052%=      5-min Rain = 0
KMC4 201600Z 16010KT 31/20 A3008 RMK A01 T03120203  RH  053%=      5-min Rain = 0
KMC4 201601Z 15011KT 31/20 A3008 RMK A01 T03120203  RH  052%=      5-min Rain = 0
KMC4 201602Z 17010KT 31/20 A3008 RMK A01 T03120203  RH  052%=      5-min Rain = 0
KMC4 201603Z 18010KT 31/20 A3008 RMK A01 T03140204  RH  052%=      5-min Rain = 0
KMC4 201604Z 17008KT 31/20 A3008 RMK A01 T03120204  RH  053%=      5-min Rain = 0
KMC4 201605Z 18007KT 31/20 A3008 RMK A01 T03110204  RH  053%=      5-min Rain = 0
KMC4 201606Z 18009KT 31/20 A3008 RMK A01 T03120202  RH  052%=      5-min Rain = 0
KMC4 201607Z 16008KT 31/20 A3008 RMK A01 T03120202  RH  052%=      5-min Rain = 0
KMC4 201608Z 14007KT 31/20 A3008 RMK A01 T03130202  RH  052%=      5-min Rain = 0
KMC4 201609Z 14009KT 32/20 A3008 RMK A01 T03150202  RH  051%=      5-min Rain = 0
KMC4 201610Z 13011G16KT 32/20 A3008 RMK A01 T03180203  RH  051%=      5-min Rain = 0
KMC4 201611Z 15013KT 32/20 A3009 RMK A01 T03200203  RH  050%=      5-min Rain = 0
KMC4 201612Z 14013KT 32/20 A3009 RMK A01 T03200202  RH  050%=      5-min Rain = 0
KMC4 201613Z 15011KT 32/20 A3009 RMK A01 T03190202  RH  050%=      5-min Rain = 0
KMC4 201614Z 16008KT 32/20 A3009 RMK A01 T03160201  RH  051%=      5-min Rain = 0
KMC4 201615Z 15008KT 32/20 A3009 RMK A01 T03150202  RH  051%=      5-min Rain = 0
KMC4 201616Z 15004KT 32/20 A3009 RMK A01 T03150202  RH  051%=      5-min Rain = 0
KMC4 201617Z 15005KT 32/20 A3009 RMK A01 T03180203  RH  051%=      5-min Rain = 0
KMC4 201618Z 14010KT 32/20 A3009 RMK A01 T03200201  RH  050%=      5-min Rain = 0
KMC4 201619Z 16008KT 32/20 A3009 RMK A01 T03200200  RH  049%=      5-min Rain = 0
KMC4 201620Z 14008KT 32/20 A3009 RMK A01 T03180200  RH  050%=      5-min Rain = 0
KMC4 201621Z 13009KT 32/20 A3009 RMK A01 T03190198  RH  049%=      5-min Rain = 0
KMC4 201622Z 15013G20KT 32/20 A3008 RMK A01 T03200197  RH  048%=      5-min Rain = 0
KMC4 201623Z 17011KT 32/20 A3009 RMK A01 T03200197  RH  048%=      5-min Rain = 0
KMC4 201624Z 15011KT 32/20 A3009 RMK A01 T03190196  RH  048%=      5-min Rain = 0
KMC4 201625Z 14010KT 32/20 A3009 RMK A01 T03200197  RH  048%=      5-min Rain = 0
KMC4 201626Z 15014KT 32/20 A3009 RMK A01 T03210198  RH  048%=      5-min Rain = 0
KMC4 201627Z 15012KT 32/20 A3009 RMK A01 T03210198  RH  048%=      5-min Rain = 0
KMC4 201628Z 14012KT 32/20 A3009 RMK A01 T03220198  RH  048%=      5-min Rain = 0
KMC4 201629Z 14010KT 32/20 A3009 RMK A01 T03220197  RH  048%=      5-min Rain = 0
KMC4 201630Z 14009KT 32/20 A3009 RMK A01 T03230199  RH  048%=      5-min Rain = 0
KMC4 201631Z 15009KT 32/20 A3009 RMK A01 T03230200  RH  048%=      5-min Rain = 0
KMC4 201632Z 17007KT 32/20 A3009 RMK A01 T03220199  RH  048%=      5-min Rain = 0
KMC4 201633Z 19006KT 32/20 A3009 RMK A01 T03240200  RH  048%=      5-min Rain = 0
KMC4 201634Z 17009KT 32/20 A3009 RMK A01 T03230200  RH  048%=      5-min Rain = 0
KMC4 201635Z 16009KT 32/20 A3009 RMK A01 T03230200  RH  048%=      5-min Rain = 0
KMC4 201636Z 17010KT 32/20 A3009 RMK A01 T03220200  RH  048%=      5-min Rain = 0
KMC4 201637Z 13008KT 32/20 A3009 RMK A01 T03210199  RH  049%=      5-min Rain = 0
KMC4 201638Z 16009KT 32/20 A3009 RMK A01 T03210200  RH  049%=      5-min Rain = 0
KMC4 201639Z 13009KT 32/20 A3009 RMK A01 T03240201  RH  048%=      5-min Rain = 0
KMC4 201640Z 14009KT 33/20 A3009 RMK A01 T03260201  RH  048%=      5-min Rain = 0
KMC4 201641Z 15007KT 32/20 A3009 RMK A01 T03240201  RH  048%=      5-min Rain = 0
KMC4 201642Z 12005KT 32/20 A3009 RMK A01 T03240200  RH  048%=      5-min Rain = 0
KMC4 201643Z 14010KT 33/20 A3009 RMK A01 T03260199  RH  047%=      5-min Rain = 0
KMC4 201644Z 15009KT 33/20 A3009 RMK A01 T03300200  RH  047%=      5-min Rain = 0
KMC4 201645Z 15007KT 33/20 A3009 RMK A01 T03330200  RH  046%=      5-min Rain = 0
KMC4 201646Z 12008KT 33/20 A3009 RMK A01 T03330199  RH  045%=      5-min Rain = 0
KMC4 201647Z 12007KT 33/20 A3009 RMK A01 T03310198  RH  045%=      5-min Rain = 0
KMC4 201648Z 14006KT 33/20 A3009 RMK A01 T03270197  RH  047%=      5-min Rain = 0
KMC4 201649Z 15012KT 33/20 A3009 RMK A01 T03260198  RH  047%=      5-min Rain = 0
KMC4 201650Z 15012KT 33/20 A3009 RMK A01 T03300199  RH  046%=      5-min Rain = 0
KMC4 201651Z 15013KT 33/20 A3009 RMK A01 T03320199  RH  046%=      5-min Rain = 0
KMC4 201652Z 15010KT 33/20 A3009 RMK A01 T03290196  RH  046%=      5-min Rain = 0
KMC4 201653Z 16007KT 33/20 A3009 RMK A01 T03270196  RH  046%=      5-min Rain = 0
KMC4 201654Z 15011KT 33/20 A3009 RMK A01 T03270195  RH  046%=      5-min Rain = 0
KMC4 201655Z 14010KT 33/19 A3009 RMK A01 T03290192  RH  044%=      5-min Rain = 0
KMC4 201656Z 14008KT 33/19 A3009 RMK A01 T03290193  RH  045%=      5-min Rain = 0
KMC4 201657Z 16009KT 33/19 A3009 RMK A01 T03290194  RH  045%=      5-min Rain = 0
KMC4 201658Z 17011G16KT 33/20 A3008 RMK A01 T03270195  RH  046%=      5-min Rain = 0
KMC4 201659Z 14010KT 33/19 A3009 RMK A01 T03270194  RH  046%=      5-min Rain = 0
KMC4 201700Z 16010KT 33/20 A3009 RMK A01 T03280195  RH  045%=      5-min Rain = 0
KMC4 201701Z 16010KT 33/20 A3009 RMK A01 T03310195  RH  045%=      5-min Rain = 0
KMC4 201702Z 17009KT 33/20 A3009 RMK A01 T03290195  RH  045%=      5-min Rain = 0
KMC4 201703Z 16009KT 33/20 A3009 RMK A01 T03260195  RH  046%=      5-min Rain = 0
KMC4 201704Z 17009KT 33/20 A3009 RMK A01 T03250195  RH  046%=      5-min Rain = 0
KMC4 201705Z 17008KT 32/19 A3009 RMK A01 T03240194  RH  046%=      5-min Rain = 0
KMC4 201706Z 15006G11KT 32/19 A3008 RMK A01 T03220194  RH  047%=      5-min Rain = 0
KMC4 201707Z 14013KT 33/19 A3008 RMK A01 T03250193  RH  046%=      5-min Rain = 0
KMC4 201708Z 16012KT 33/19 A3008 RMK A01 T03280192  RH  045%=      5-min Rain = 0
KMC4 201709Z 17010KT 33/19 A3008 RMK A01 T03280193  RH  045%=      5-min Rain = 0
KMC4 201710Z 15011KT 33/19 A3008 RMK A01 T03280191  RH  044%=      5-min Rain = 0
KMC4 201711Z 17011KT 33/19 A3008 RMK A01 T03290192  RH  044%=      5-min Rain = 0
KMC4 201712Z 16009KT 33/19 A3008 RMK A01 T03260192  RH  045%=      5-min Rain = 0
KMC4 201713Z 17006KT 32/19 A3008 RMK A01 T03240192  RH  046%=      5-min Rain = 0
KMC4 201714Z 16008KT 32/19 A3008 RMK A01 T03220192  RH  046%=      5-min Rain = 0
KMC4 201715Z 18010KT 32/19 A3008 RMK A01 T03240192  RH  046%=      5-min Rain = 0
KMC4 201716Z 16010KT 33/19 A3008 RMK A01 T03260192  RH  045%=      5-min Rain = 0
KMC4 201717Z 14010KT 33/20 A3008 RMK A01 T03280195  RH  046%=      5-min Rain = 0
KMC4 201718Z 16011KT 33/20 A3008 RMK A01 T03270195  RH  046%=      5-min Rain = 0
KMC4 201719Z 16006KT 33/19 A3008 RMK A01 T03250194  RH  046%=      5-min Rain = 0
KMC4 201720Z 15007KT 33/20 A3008 RMK A01 T03260196  RH  046%=      5-min Rain = 0
KMC4 201721Z 13013KT 33/19 A3008 RMK A01 T03310194  RH  044%=      5-min Rain = 0
KMC4 201722Z 12012KT 34/19 A3008 RMK A01 T03350188  RH  042%=      5-min Rain = 0
KMC4 201723Z 11008KT 33/19 A3008 RMK A01 T03330186  RH  042%=      5-min Rain = 0
KMC4 201724Z 11009G14KT 33/19 A3008 RMK A01 T03310187  RH  043%=      5-min Rain = 0
KMC4 201725Z 12010KT 33/19 A3008 RMK A01 T03330188  RH  042%=      5-min Rain = 0
KMC4 201726Z 12012KT 33/19 A3008 RMK A01 T03330191  RH  043%=      5-min Rain = 0
KMC4 201727Z 11010KT 33/19 A3008 RMK A01 T03320191  RH  043%=      5-min Rain = 0
KMC4 201728Z 11009KT 33/19 A3008 RMK A01 T03330191  RH  043%=      5-min Rain = 0
KMC4 201729Z 13014KT 34/19 A3008 RMK A01 T03370190  RH  042%=      5-min Rain = 0
KMC4 201730Z 14012KT 34/19 A3008 RMK A01 T03390186  RH  041%=      5-min Rain = 0
KMC4 201731Z 12010KT 34/19 A3008 RMK A01 T03380188  RH  041%=      5-min Rain = 0
KMC4 201732Z 11011KT 34/19 A3008 RMK A01 T03370189  RH  042%=      5-min Rain = 0
KMC4 201733Z 12010KT 34/19 A3008 RMK A01 T03360190  RH  042%=      5-min Rain = 0
KMC4 201734Z 13010KT 34/19 A3008 RMK A01 T03360191  RH  042%=      5-min Rain = 0
KMC4 201735Z 12014KT 34/19 A3008 RMK A01 T03390192  RH  042%=      5-min Rain = 0
KMC4 201736Z 12011KT 34/19 A3008 RMK A01 T03380191  RH  042%=      5-min Rain = 0
KMC4 201737Z 11008KT 33/19 A3008 RMK A01 T03340189  RH  043%=      5-min Rain = 0
KMC4 201738Z 11008KT 33/19 A3008 RMK A01 T03330187  RH  042%=      5-min Rain = 0
KMC4 201739Z 11009KT 33/19 A3008 RMK A01 T03320186  RH  042%=      5-min Rain = 0
KMC4 201740Z 12006KT 33/19 A3008 RMK A01 T03330186  RH  042%=      5-min Rain = 0
KMC4 201741Z 12010KT 34/19 A3008 RMK A01 T03350187  RH  042%=      5-min Rain = 0
KMC4 201742Z 13013G18KT 34/19 A3008 RMK A01 T03400187  RH  041%=      5-min Rain = 0
KMC4 201743Z 11008KT 34/18 A3008 RMK A01 T03420184  RH  039%=      5-min Rain = 0
KMC4 201744Z 12010G16KT 34/18 A3008 RMK A01 T03410183  RH  039%=      5-min Rain = 0
KMC4 201745Z 14012KT 34/19 A3008 RMK A01 T03420190  RH  041%=      5-min Rain = 0
KMC4 201746Z 14009KT 34/19 A3008 RMK A01 T03410192  RH  042%=      5-min Rain = 0
KMC4 201747Z 13011KT 34/19 A3008 RMK A01 T03410192  RH  042%=      5-min Rain = 0
KMC4 201748Z 13009KT 34/19 A3008 RMK A01 T03420190  RH  041%=      5-min Rain = 0
KMC4 201749Z 13007KT 34/19 A3008 RMK A01 T03400189  RH  041%=      5-min Rain = 0
KMC4 201750Z 11006KT 34/19 A3008 RMK A01 T03380188  RH  041%=      5-min Rain = 0
KMC4 201751Z 15008G13KT 34/19 A3008 RMK A01 T03370189  RH  042%=      5-min Rain = 0
KMC4 201752Z 17012G18KT 34/19 A3008 RMK A01 T03390189  RH  041%=      5-min Rain = 0
KMC4 201753Z 18010KT 34/19 A3008 RMK A01 T03380191  RH  042%=      5-min Rain = 0
KMC4 201754Z 17013KT 34/19 A3008 RMK A01 T03370193  RH  043%=      5-min Rain = 0
KMC4 201755Z 18011KT 34/19 A3008 RMK A01 T03420192  RH  042%=      5-min Rain = 0
KMC4 201756Z 19009KT 34/19 A3008 RMK A01 T03400191  RH  041%=      5-min Rain = 0
KMC4 201757Z 18008KT 34/19 A3008 RMK A01 T03350191  RH  043%=      5-min Rain = 0
KMC4 201758Z 17010G17KT 33/19 A3008 RMK A01 T03340191  RH  043%=      5-min Rain = 0
KMC4 201759Z 16012KT 33/19 A3008 RMK A01 T03340191  RH  043%=      5-min Rain = 0
KMC4 201800Z 17006KT 33/19 A3008 RMK A01 T03330191  RH  043%=      5-min Rain = 0
KMC4 201801Z 16008KT 33/19 A3008 RMK A01 T03330191  RH  043%=      5-min Rain = 0
KMC4 201802Z 18005KT 33/19 A3008 RMK A01 T03300190  RH  043%=      5-min Rain = 0
KMC4 201803Z 16005KT 33/19 A3008 RMK A01 T03300190  RH  043%=      5-min Rain = 0
KMC4 201804Z 15009G15KT 33/19 A3008 RMK A01 T03330191  RH  043%=      5-min Rain = 0
KMC4 201805Z 13012KT 34/19 A3008 RMK A01 T03370191  RH  042%=      5-min Rain = 0
KMC4 201806Z 13009KT 34/19 A3008 RMK A01 T03380190  RH  042%=      5-min Rain = 0
KMC4 201807Z 14007KT 34/19 A3008 RMK A01 T03370190  RH  042%=      5-min Rain = 0
KMC4 201808Z 16008G13KT 34/19 A3008 RMK A01 T03360190  RH  042%=      5-min Rain = 0
KMC4 201809Z 14013KT 34/19 A3008 RMK A01 T03370188  RH  042%=      5-min Rain = 0
KMC4 201810Z 15013KT 34/19 A3008 RMK A01 T03390186  RH  040%=      5-min Rain = 0
KMC4 201811Z 15013KT 34/19 A3008 RMK A01 T03410188  RH  040%=      5-min Rain = 0
KMC4 201812Z 16014KT 34/19 A3008 RMK A01 T03410192  RH  042%=      5-min Rain = 0
KMC4 201813Z 17009KT 34/19 A3008 RMK A01 T03380192  RH  042%=      5-min Rain = 0
KMC4 201814Z 17011KT 34/19 A3008 RMK A01 T03370192  RH  043%=      5-min Rain = 0
KMC4 201815Z 18008KT 34/19 A3008 RMK A01 T03380191  RH  042%=      5-min Rain = 0
KMC4 201816Z 19009KT 34/19 A3007 RMK A01 T03380192  RH  042%=      5-min Rain = 0
KMC4 201817Z 15009KT 34/19 A3007 RMK A01 T03420192  RH  041%=      5-min Rain = 0
KMC4 201818Z 11012KT 35/19 A3007 RMK A01 T03460191  RH  040%=      5-min Rain = 0
KMC4 201819Z 09008KT 34/19 A3007 RMK A01 T03420188  RH  040%=      5-min Rain = 0
KMC4 201820Z 08006KT 34/19 A3007 RMK A01 T03410188  RH  041%=      5-min Rain = 0
KMC4 201821Z 09007KT 34/19 A3007 RMK A01 T03410189  RH  041%=      5-min Rain = 0
KMC4 201822Z 11009KT 34/19 A3007 RMK A01 T03420189  RH  041%=      5-min Rain = 0
KMC4 201823Z 12013G19KT 35/19 A3007 RMK A01 T03450190  RH  040%=      5-min Rain = 0
KMC4 201824Z 12014KT 34/19 A3007 RMK A01 T03440190  RH  040%=      5-min Rain = 0
KMC4 201825Z 14012KT 34/19 A3007 RMK A01 T03440190  RH  040%=      5-min Rain = 0
KMC4 201826Z 15011KT 35/19 A3007 RMK A01 T03500191  RH  039%=      5-min Rain = 0
KMC4 201827Z 17010KT 35/19 A3007 RMK A01 T03530191  RH  039%=      5-min Rain = 0
KMC4 201828Z 16014KT 35/19 A3007 RMK A01 T03520188  RH  038%=      5-min Rain = 0
KMC4 201829Z 16012G17KT 35/19 A3007 RMK A01 T03490186  RH  038%=      5-min Rain = 0
KMC4 201830Z 15011G16KT 35/19 A3007 RMK A01 T03450187  RH  039%=      5-min Rain = 0
KMC4 201831Z 12014KT 35/19 A3007 RMK A01 T03450186  RH  039%=      5-min Rain = 0
KMC4 201832Z 14014KT 35/19 A3007 RMK A01 T03450186  RH  039%=      5-min Rain = 0
KMC4 201833Z 14010KT 35/19 A3007 RMK A01 T03460186  RH  039%=      5-min Rain = 0
KMC4 201834Z 16008KT 35/19 A3007 RMK A01 T03500186  RH  038%=      5-min Rain = 0
KMC4 201835Z 18006KT 35/19 A3007 RMK A01 T03480185  RH  038%=      5-min Rain = 0
KMC4 201836Z 19007KT 35/19 A3007 RMK A01 T03460185  RH  039%=      5-min Rain = 0
KMC4 201837Z 18008KT 34/19 A3007 RMK A01 T03440185  RH  039%=      5-min Rain = 0
KMC4 201838Z 18007KT 34/18 A3007 RMK A01 T03420184  RH  039%=      5-min Rain = 0
KMC4 201839Z 18012KT 34/19 A3006 RMK A01 T03430186  RH  040%=      5-min Rain = 0
KMC4 201840Z 17010KT 34/19 A3007 RMK A01 T03440188  RH  040%=      5-min Rain = 0
KMC4 201841Z 17013KT 35/19 A3006 RMK A01 T03460186  RH  039%=      5-min Rain = 0
KMC4 201842Z 17010KT 35/19 A3006 RMK A01 T03470186  RH  039%=      5-min Rain = 0
KMC4 201843Z 18013KT 35/19 A3006 RMK A01 T03450186  RH  039%=      5-min Rain = 0
KMC4 201844Z 18013G18KT 35/19 A3006 RMK A01 T03450185  RH  039%=      5-min Rain = 0
KMC4 201845Z 19010KT 34/19 A3006 RMK A01 T03410185  RH  040%=      5-min Rain = 0
KMC4 201846Z 19010KT 34/18 A3006 RMK A01 T03410184  RH  040%=      5-min Rain = 0
KMC4 201847Z 18010KT 35/19 A3006 RMK A01 T03450185  RH  039%=      5-min Rain = 0
KMC4 201848Z 18011KT 35/18 A3006 RMK A01 T03450184  RH  039%=      5-min Rain = 0
KMC4 201849Z 19010KT 34/18 A3006 RMK A01 T03440184  RH  039%=      5-min Rain = 0
KMC4 201850Z 17008KT 34/18 A3006 RMK A01 T03400183  RH  039%=      5-min Rain = 0
KMC4 201851Z 15010KT 34/18 A3006 RMK A01 T03390182  RH  040%=      5-min Rain = 0
KMC4 201852Z 16009KT 34/18 A3006 RMK A01 T03430181  RH  038%=      5-min Rain = 0
KMC4 201853Z 17007KT 35/18 A3006 RMK A01 T03470179  RH  037%=      5-min Rain = 0
KMC4 201854Z 13010KT 35/18 A3006 RMK A01 T03470182  RH  038%=      5-min Rain = 0
KMC4 201855Z 12010KT 35/19 A3006 RMK A01 T03500185  RH  038%=      5-min Rain = 0
KMC4 201856Z 12008KT 35/18 A3006 RMK A01 T03530184  RH  037%=      5-min Rain = 0
KMC4 201857Z 12010KT 35/18 A3006 RMK A01 T03540183  RH  037%=      5-min Rain = 0
KMC4 201858Z 11012KT 35/18 A3006 RMK A01 T03540184  RH  037%=      5-min Rain = 0
KMC4 201859Z 11010KT 35/18 A3006 RMK A01 T03520181  RH  036%=      5-min Rain = 0
KMC4 201900Z 11008KT 35/18 A3006 RMK A01 T03480181  RH  037%=      5-min Rain = 0
KMC4 201901Z 14008KT 35/18 A3006 RMK A01 T03510183  RH  037%=      5-min Rain = 0
KMC4 201902Z 16011KT 35/18 A3006 RMK A01 T03540181  RH  036%=      5-min Rain = 0
KMC4 201903Z 13012G17KT 36/18 A3006 RMK A01 T03550181  RH  036%=      5-min Rain = 0
KMC4 201904Z 14014KT 36/18 A3006 RMK A01 T03570181  RH  035%=      5-min Rain = 0
KMC4 201905Z 16014KT 36/18 A3006 RMK A01 T03550181  RH  036%=      5-min Rain = 0
KMC4 201906Z 13016KT 35/18 A3006 RMK A01 T03520181  RH  036%=      5-min Rain = 0
KMC4 201907Z 14013KT 35/18 A3006 RMK A01 T03530180  RH  036%=      5-min Rain = 0
KMC4 201908Z 15011KT 36/18 A3006 RMK A01 T03560179  RH  035%=      5-min Rain = 0
KMC4 201909Z 14012KT 36/18 A3005 RMK A01 T03550179  RH  035%=      5-min Rain = 0
KMC4 201910Z 14014G19KT 36/18 A3005 RMK A01 T03560179  RH  035%=      5-min Rain = 0
KMC4 201911Z 15013KT 36/18 A3005 RMK A01 T03580179  RH  035%=      5-min Rain = 0
KMC4 201912Z 16011KT 36/18 A3006 RMK A01 T03560178  RH  035%=      5-min Rain = 0
KMC4 201913Z 16011KT 35/18 A3005 RMK A01 T03540178  RH  035%=      5-min Rain = 0
KMC4 201914Z 15008KT 35/18 A3005 RMK A01 T03540177  RH  035%=      5-min Rain = 0
KMC4 201915Z 11008KT 35/18 A3005 RMK A01 T03540177  RH  035%=      5-min Rain = 0
KMC4 201916Z 13006KT 35/18 A3005 RMK A01 T03530177  RH  036%=      5-min Rain = 0
KMC4 201917Z 13003KT 35/18 A3005 RMK A01 T03510177  RH  036%=      5-min Rain = 0
KMC4 201918Z 14010KT 35/18 A3005 RMK A01 T03510179  RH  036%=      5-min Rain = 0
KMC4 201919Z 15009G15KT 36/18 A3005 RMK A01 T03550179  RH  035%=      5-min Rain = 0
KMC4 201920Z 13014KT 36/18 A3005 RMK A01 T03550180  RH  036%=      5-min Rain = 0
KMC4 201921Z 14008KT 36/18 A3005 RMK A01 T03580180  RH  035%=      5-min Rain = 0
KMC4 201922Z 15006KT 36/18 A3005 RMK A01 T03570179  RH  035%=      5-min Rain = 0
KMC4 201923Z 17008G13KT 35/18 A3005 RMK A01 T03540179  RH  036%=      5-min Rain = 0
KMC4 201924Z 12012KT 35/18 A3005 RMK A01 T03540180  RH  036%=      5-min Rain = 0
KMC4 201925Z 11013KT 36/18 A3005 RMK A01 T03570178  RH  035%=      5-min Rain = 0
KMC4 201926Z 15012KT 36/18 A3005 RMK A01 T03570180  RH  035%=      5-min Rain = 0
KMC4 201927Z 14009KT 36/18 A3005 RMK A01 T03620181  RH  034%=      5-min Rain = 0
KMC4 201928Z 13008KT 36/18 A3005 RMK A01 T03640182  RH  034%=      5-min Rain = 0
KMC4 201929Z 12011KT 36/18 A3005 RMK A01 T03630181  RH  034%=      5-min Rain = 0
KMC4 201930Z 11011KT 36/18 A3005 RMK A01 T03600180  RH  035%=      5-min Rain = 0
KMC4 201931Z 12008KT 36/18 A3005 RMK A01 T03560179  RH  035%=      5-min Rain = 0
KMC4 201932Z 15009KT 35/18 A3005 RMK A01 T03530179  RH  036%=      5-min Rain = 0
KMC4 201933Z 16010KT 35/18 A3005 RMK A01 T03540180  RH  036%=      5-min Rain = 0
KMC4 201934Z 14011G18KT 36/18 A3005 RMK A01 T03570181  RH  036%=      5-min Rain = 0
KMC4 201935Z 13009G15KT 36/18 A3005 RMK A01 T03610179  RH  034%=      5-min Rain = 0
KMC4 201936Z 14014KT 36/18 A3005 RMK A01 T03630179  RH  034%=      5-min Rain = 0
KMC4 201937Z 14015KT 36/18 A3005 RMK A01 T03630179  RH  034%=      5-min Rain = 0
KMC4 201938Z 14013KT 36/18 A3005 RMK A01 T03620177  RH  034%=      5-min Rain = 0
KMC4 201939Z 14012KT 36/18 A3005 RMK A01 T03600176  RH  034%=      5-min Rain = 0
KMC4 201940Z 14012KT 36/18 A3005 RMK A01 T03580177  RH  034%=      5-min Rain = 0
KMC4 201941Z 15012KT 36/18 A3005 RMK A01 T03560178  RH  035%=      5-min Rain = 0
KMC4 201942Z 15009KT 35/18 A3005 RMK A01 T03540178  RH  035%=      5-min Rain = 0
KMC4 201943Z 14008KT 35/18 A3005 RMK A01 T03530180  RH  036%=      5-min Rain = 0
KMC4 201944Z 16006KT 36/18 A3005 RMK A01 T03550180  RH  036%=      5-min Rain = 0
KMC4 201945Z 12003KT 36/18 A3005 RMK A01 T03550178  RH  035%=      5-min Rain = 0
KMC4 201946Z 10006KT 35/18 A3004 RMK A01 T03540179  RH  036%=      5-min Rain = 0
KMC4 201947Z 10005KT 36/18 A3004 RMK A01 T03550179  RH  035%=      5-min Rain = 0
KMC4 201948Z 12005KT 36/18 A3004 RMK A01 T03550180  RH  036%=      5-min Rain = 0
KMC4 201949Z 12006KT 36/18 A3004 RMK A01 T03550179  RH  036%=      5-min Rain = 0
KMC4 201950Z 14009KT 35/18 A3004 RMK A01 T03540178  RH  035%=      5-min Rain = 0
KMC4 201951Z 14011KT 36/18 A3004 RMK A01 T03560178  RH  035%=      5-min Rain = 0
KMC4 201952Z 14014KT 36/18 A3004 RMK A01 T03560178  RH  035%=      5-min Rain = 0
KMC4 201953Z 11010G16KT 36/18 A3004 RMK A01 T03560178  RH  035%=      5-min Rain = 0
KMC4 201954Z 14013KT 36/18 A3004 RMK A01 T03580180  RH  035%=      5-min Rain = 0
KMC4 201955Z 13013KT 36/18 A3004 RMK A01 T03620179  RH  034%=      5-min Rain = 0
KMC4 201956Z 14008KT 36/18 A3004 RMK A01 T03610179  RH  034%=      5-min Rain = 0
KMC4 201957Z 13006KT 36/18 A3004 RMK A01 T03610179  RH  034%=      5-min Rain = 0
KMC4 201958Z 12009KT 36/18 A3004 RMK A01 T03610179  RH  034%=      5-min Rain = 0
KMC4 201959Z 14011KT 36/18 A3004 RMK A01 T03640180  RH  034%=      5-min Rain = 0
KMC4 202000Z 16015KT 37/18 A3004 RMK A01 T03660178  RH  033%=      5-min Rain = 0
KMC4 202001Z 15015KT 37/18 A3004 RMK A01 T03650177  RH  033%=      5-min Rain = 0
KMC4 202002Z 15012G17KT 37/18 A3004 RMK A01 T03650175  RH  033%=      5-min Rain = 0
KMC4 202003Z 15016KT 36/18 A3004 RMK A01 T03640176  RH  033%=      5-min Rain = 0
KMC4 202004Z 17015KT 37/18 A3004 RMK A01 T03670175  RH  032%=      5-min Rain = 0
KMC4 202005Z 16012KT 36/17 A3004 RMK A01 T03620173  RH  033%=      5-min Rain = 0
KMC4 202006Z 14011KT 36/17 A3004 RMK A01 T03590174  RH  033%=      5-min Rain = 0
KMC4 202007Z 15014KT 36/18 A3004 RMK A01 T03620176  RH  033%=      5-min Rain = 0
KMC4 202008Z 16013KT 37/18 A3004 RMK A01 T03650176  RH  033%=      5-min Rain = 0
KMC4 202009Z 16009KT 36/17 A3004 RMK A01 T03620173  RH  033%=      5-min Rain = 0
KMC4 202010Z 14010KT 36/17 A3004 RMK A01 T03610171  RH  033%=      5-min Rain = 0
KMC4 202011Z 12013KT 36/17 A3004 RMK A01 T03610170  RH  032%=      5-min Rain = 0
KMC4 202012Z 12011KT 36/17 A3003 RMK A01 T03620172  RH  033%=      5-min Rain = 0
KMC4 202013Z 11013KT 37/17 A3003 RMK A01 T03650172  RH  032%=      5-min Rain = 0
KMC4 202014Z 13013KT 37/17 A3003 RMK A01 T03660171  RH  032%=      5-min Rain = 0
KMC4 202015Z 12014KT 37/17 A3003 RMK A01 T03670170  RH  031%=      5-min Rain = 0
KMC4 202016Z 11012KT 37/17 A3003 RMK A01 T03650168  RH  031%=      5-min Rain = 0
KMC4 202017Z 12008KT 36/17 A3003 RMK A01 T03640167  RH  031%=      5-min Rain = 0
KMC4 202018Z 13010KT 36/17 A3003 RMK A01 T03630166  RH  031%=      5-min Rain = 0
KMC4 202019Z 14011KT 36/17 A3003 RMK A01 T03610165  RH  031%=      5-min Rain = 0
KMC4 202020Z 12009KT 36/16 A3003 RMK A01 T03620164  RH  031%=      5-min Rain = 0
KMC4 202021Z 14006KT 36/16 A3003 RMK A01 T03610164  RH  031%=      5-min Rain = 0
KMC4 202022Z 15003KT 36/16 A3003 RMK A01 T03590164  RH  031%=      5-min Rain = 0
KMC4 202023Z 08007KT 36/16 A3003 RMK A01 T03580164  RH  032%=      5-min Rain = 0
KMC4 202024Z 08008KT 36/16 A3003 RMK A01 T03590162  RH  031%=      5-min Rain = 0
KMC4 202025Z 11012G18KT 36/16 A3003 RMK A01 T03590161  RH  031%=      5-min Rain = 0
KMC4 202026Z 12011KT 36/16 A3003 RMK A01 T03590161  RH  031%=      5-min Rain = 0
KMC4 202027Z 11011KT 36/16 A3003 RMK A01 T03590160  RH  031%=      5-min Rain = 0
KMC4 202028Z 12012KT 36/16 A3003 RMK A01 T03590158  RH  030%=      5-min Rain = 0
KMC4 202029Z 11010KT 36/16 A3003 RMK A01 T03590157  RH  030%=      5-min Rain = 0
KMC4 202030Z 10008KT 36/16 A3003 RMK A01 T03600159  RH  030%=      5-min Rain = 0
KMC4 202031Z 10010KT 36/16 A3002 RMK A01 T03590161  RH  031%=      5-min Rain = 0
KMC4 202032Z 11013KT 36/16 A3003 RMK A01 T03620164  RH  031%=      5-min Rain = 0
KMC4 202033Z 10009KT 36/17 A3002 RMK A01 T03630165  RH  031%=      5-min Rain = 0
KMC4 202034Z 10012KT 37/17 A3002 RMK A01 T03650165  RH  031%=      5-min Rain = 0
KMC4 202035Z 10011KT 36/17 A3002 RMK A01 T03640165  RH  031%=      5-min Rain = 0
KMC4 202036Z 14015KT 37/16 A3002 RMK A01 T03670164  RH  030%=      5-min Rain = 0
KMC4 202037Z 13010KT 37/16 A3002 RMK A01 T03690162  RH  030%=      5-min Rain = 0
KMC4 202038Z 12011KT 37/16 A3002 RMK A01 T03670163  RH  030%=      5-min Rain = 0
KMC4 202039Z 11009KT 37/16 A3002 RMK A01 T03670162  RH  030%=      5-min Rain = 0
KMC4 202040Z 13009KT 37/16 A3002 RMK A01 T03660162  RH  030%=      5-min Rain = 0
KMC4 202041Z 16011KT 37/16 A3002 RMK A01 T03660161  RH  030%=      5-min Rain = 0
KMC4 202042Z 14012KT 36/16 A3002 RMK A01 T03630158  RH  030%=      5-min Rain = 0
KMC4 202043Z 13012KT 36/16 A3002 RMK A01 T03640155  RH  029%=      5-min Rain = 0
KMC4 202044Z 12008KT 37/15 A3002 RMK A01 T03660154  RH  028%=      5-min Rain = 0
KMC4 202045Z 12014KT 37/15 A3002 RMK A01 T03650153  RH  028%=      5-min Rain = 0
KMC4 202046Z 13013KT 37/15 A3002 RMK A01 T03650154  RH  029%=      5-min Rain = 0
KMC4 202047Z 13012KT 37/15 A3002 RMK A01 T03650153  RH  029%=      5-min Rain = 0
KMC4 202048Z 14010KT 37/15 A3002 RMK A01 T03660153  RH  028%=      5-min Rain = 0
KMC4 202049Z 14009KT 37/15 A3002 RMK A01 T03680151  RH  028%=      5-min Rain = 0
KMC4 202050Z 17009KT 37/15 A3002 RMK A01 T03680152  RH  028%=      5-min Rain = 0
KMC4 202051Z 15009KT 37/15 A3002 RMK A01 T03670152  RH  028%=      5-min Rain = 0
KMC4 202052Z 12008KT 37/15 A3002 RMK A01 T03670154  RH  028%=      5-min Rain = 0
KMC4 202053Z 11007KT 37/16 A3002 RMK A01 T03680155  RH  028%=      5-min Rain = 0
KMC4 202054Z 13006G13KT 37/16 A3002 RMK A01 T03660155  RH  029%=      5-min Rain = 0
KMC4 202055Z 11012KT 36/16 A3002 RMK A01 T03640162  RH  030%=      5-min Rain = 0
KMC4 202056Z 13010G15KT 37/16 A3002 RMK A01 T03650163  RH  030%=      5-min Rain = 0
KMC4 202057Z 14011KT 37/16 A3002 RMK A01 T03660164  RH  030%=      5-min Rain = 0
KMC4 202058Z 15009KT 37/17 A3002 RMK A01 T03680165  RH  030%=      5-min Rain = 0
KMC4 202059Z 16010KT 37/17 A3002 RMK A01 T03700168  RH  030%=      5-min Rain = 0
KMC4 202100Z 15011KT 37/17 A3002 RMK A01 T03700167  RH  030%=      5-min Rain = 0
KMC4 202101Z 14013KT 37/16 A3001 RMK A01 T03700163  RH  029%=      5-min Rain = 0
KMC4 202102Z 12014KT 37/16 A3001 RMK A01 T03710160  RH  029%=      5-min Rain = 0
KMC4 202103Z 11008KT 37/16 A3001 RMK A01 T03670159  RH  029%=      5-min Rain = 0
KMC4 202104Z 13012G20KT 36/16 A3001 RMK A01 T03640159  RH  030%=      5-min Rain = 0
KMC4 202105Z 15010KT 37/16 A3001 RMK A01 T03670160  RH  029%=      5-min Rain = 0
KMC4 202106Z 11015KT 37/16 A3001 RMK A01 T03680161  RH  029%=      5-min Rain = 0
KMC4 202107Z 11013KT 37/16 A3001 RMK A01 T03660159  RH  029%=      5-min Rain = 0
KMC4 202108Z 10010KT 36/16 A3001 RMK A01 T03640159  RH  030%=      5-min Rain = 0
KMC4 202109Z 12013G18KT 37/16 A3001 RMK A01 T03650160  RH  030%=      5-min Rain = 0
KMC4 202110Z 12015KT 37/16 A3001 RMK A01 T03690158  RH  029%=      5-min Rain = 0
KMC4 202111Z 12012KT 37/16 A3001 RMK A01 T03680155  RH  028%=      5-min Rain = 0
KMC4 202112Z 12013KT 37/16 A3001 RMK A01 T03690155  RH  028%=      5-min Rain = 0
KMC4 202113Z 12015KT 37/16 A3001 RMK A01 T03690155  RH  028%=      5-min Rain = 0
KMC4 202114Z 13010KT 37/15 A3001 RMK A01 T03690152  RH  028%=      5-min Rain = 0
KMC4 202115Z 12007KT 37/16 A3001 RMK A01 T03680157  RH  029%=      5-min Rain = 0
KMC4 202116Z 11009KT 37/16 A3001 RMK A01 T03660159  RH  029%=      5-min Rain = 0
KMC4 202117Z 10009KT 37/16 A3001 RMK A01 T03660160  RH  030%=      5-min Rain = 0
KMC4 202118Z 10007KT 36/16 A3001 RMK A01 T03640160  RH  030%=      5-min Rain = 0
KMC4 202119Z 10010KT 36/16 A3001 RMK A01 T03630160  RH  030%=      5-min Rain = 0
KMC4 202120Z 10006KT 36/16 A3001 RMK A01 T03620160  RH  030%=      5-min Rain = 0
KMC4 202121Z 10012KT 36/16 A3001 RMK A01 T03620159  RH  030%=      5-min Rain = 0
KMC4 202122Z 10015KT 36/16 A3001 RMK A01 T03640156  RH  029%=      5-min Rain = 0
KMC4 202123Z 10016KT 37/15 A3001 RMK A01 T03660154  RH  028%=      5-min Rain = 0
KMC4 202124Z 09013KT 37/15 A3001 RMK A01 T03660152  RH  028%=      5-min Rain = 0
KMC4 202125Z 10010KT 36/15 A3001 RMK A01 T03620151  RH  028%=      5-min Rain = 0
KMC4 202126Z 11012KT 36/15 A3001 RMK A01 T03620148  RH  028%=      5-min Rain = 0
KMC4 202127Z 11014KT 36/15 A3001 RMK A01 T03630145  RH  027%=      5-min Rain = 0
KMC4 202128Z 12015KT 37/15 A3001 RMK A01 T03660145  RH  027%=      5-min Rain = 0
KMC4 202129Z 11014KT 37/15 A3001 RMK A01 T03690145  RH  026%=      5-min Rain = 0
KMC4 202130Z 12010KT 37/15 A3001 RMK A01 T03680149  RH  027%=      5-min Rain = 0
KMC4 202131Z 13012KT 37/15 A3001 RMK A01 T03700151  RH  027%=      5-min Rain = 0
KMC4 202132Z 14008KT 37/15 A3001 RMK A01 T03710150  RH  027%=      5-min Rain = 0
KMC4 202133Z 13006KT 37/15 A3001 RMK A01 T03710150  RH  027%=      5-min Rain = 0
KMC4 202134Z 13006KT 37/15 A3001 RMK A01 T03690150  RH  027%=      5-min Rain = 0
KMC4 202135Z 13009KT 37/16 A3001 RMK A01 T03680155  RH  028%=      5-min Rain = 0
KMC4 202136Z 14008KT 37/16 A3001 RMK A01 T03680158  RH  029%=      5-min Rain = 0
KMC4 202137Z 13009KT 37/16 A3001 RMK A01 T03680159  RH  029%=      5-min Rain = 0
KMC4 202138Z 15012G21KT 37/16 A3001 RMK A01 T03700162  RH  029%=      5-min Rain = 0
KMC4 202139Z 13015KT 37/16 A30 RMK A01 T03720162  RH  029%=      5-min Rain = 0
KMC4 202140Z 14011KT 37/16 A3001 RMK A01 T03720160  RH  029%=      5-min Rain = 0
KMC4 202141Z 14011KT 37/16 A3001 RMK A01 T03690159  RH  029%=      5-min Rain = 0
KMC4 202142Z 14014KT 37/16 A30 RMK A01 T03690156  RH  028%=      5-min Rain = 0
KMC4 202143Z 14011KT 37/16 A30 RMK A01 T03690156  RH  028%=      5-min Rain = 0
KMC4 202144Z 15009KT 37/16 A30 RMK A01 T03680155  RH  028%=      5-min Rain = 0
KMC4 202145Z 16007KT 37/16 A30 RMK A01 T03660156  RH  029%=      5-min Rain = 0
KMC4 202146Z 14012G17KT 37/16 A30 RMK A01 T03660155  RH  029%=      5-min Rain = 0
KMC4 202147Z 10011KT 37/15 A30 RMK A01 T03690152  RH  028%=      5-min Rain = 0
KMC4 202148Z 11011KT 37/15 A30 RMK A01 T03710150  RH  027%=      5-min Rain = 0
KMC4 202149Z 11011KT 37/15 A30 RMK A01 T03720149  RH  027%=      5-min Rain = 0
KMC4 202150Z 12010KT 37/15 A30 RMK A01 T03710146  RH  026%=      5-min Rain = 0
KMC4 202151Z 13009KT 37/15 A30 RMK A01 T03700147  RH  027%=      5-min Rain = 0
KMC4 202152Z 14011KT 37/15 A30 RMK A01 T03730148  RH  026%=      5-min Rain = 0
KMC4 202153Z 14013KT 37/15 A30 RMK A01 T03740148  RH  026%=      5-min Rain = 0
KMC4 202154Z 14008KT 37/15 A30 RMK A01 T03720148  RH  026%=      5-min Rain = 0
KMC4 202155Z 17007KT 37/15 A30 RMK A01 T03710148  RH  027%=      5-min Rain = 0
KMC4 202156Z 18007KT 37/15 A30 RMK A01 T03700147  RH  027%=      5-min Rain = 0
KMC4 202157Z 15009KT 37/15 A30 RMK A01 T03670147  RH  027%=      5-min Rain = 0
KMC4 202158Z 13010KT 37/15 A30 RMK A01 T03670146  RH  027%=      5-min Rain = 0
KMC4 202159Z 16011KT 37/15 A30 RMK A01 T03700145  RH  026%=      5-min Rain = 0
KMC4 202200Z 15014KT 37/14 A30 RMK A01 T03730142  RH  025%=      5-min Rain = 0
KMC4 202201Z 17008KT 37/14 A30 RMK A01 T03720141  RH  025%=      5-min Rain = 0
KMC4 202202Z 14012KT 37/14 A30 RMK A01 T03690139  RH  025%=      5-min Rain = 0
KMC4 202203Z 11014KT 37/14 A30 RMK A01 T03690143  RH  026%=      5-min Rain = 0
KMC4 202204Z 12014KT 37/14 A30 RMK A01 T03700140  RH  025%=      5-min Rain = 0
KMC4 202205Z 11013KT 37/14 A30 RMK A01 T03720139  RH  025%=      5-min Rain = 0
KMC4 202206Z 11012KT 37/14 A30 RMK A01 T03710141  RH  026%=      5-min Rain = 0
KMC4 202207Z 11011KT 37/14 A30 RMK A01 T03680142  RH  026%=      5-min Rain = 0
KMC4 202208Z 12007KT 37/14 A30 RMK A01 T03650142  RH  026%=      5-min Rain = 0
KMC4 202209Z 13006KT 37/14 A30 RMK A01 T03650143  RH  027%=      5-min Rain = 0
KMC4 202210Z 15008KT 37/14 A30 RMK A01 T03680141  RH  026%=      5-min Rain = 0
KMC4 202211Z 13006KT 37/14 A30 RMK A01 T03690141  RH  026%=      5-min Rain = 0
KMC4 202212Z 13010KT 37/14 A30 RMK A01 T03700143  RH  026%=      5-min Rain = 0
KMC4 202213Z 14012KT 37/15 A30 RMK A01 T03710145  RH  026%=      5-min Rain = 0
KMC4 202214Z 17011KT 37/15 A30 RMK A01 T03720145  RH  026%=      5-min Rain = 0
KMC4 202215Z 17010KT 37/15 A30 RMK A01 T03720145  RH  026%=      5-min Rain = 0
KMC4 202216Z 17010G15KT 37/14 A30 RMK A01 T03700144  RH  026%=      5-min Rain = 0
KMC4 202217Z 15015KT 37/14 A30 RMK A01 T03660143  RH  026%=      5-min Rain = 0
KMC4 202218Z 14014KT 37/14 A30 RMK A01 T03670138  RH  025%=      5-min Rain = 0
KMC4 202219Z 15016KT 37/14 A30 RMK A01 T03720136  RH  025%=      5-min Rain = 0
KMC4 202220Z 15014KT 37/14 A30 RMK A01 T03710136  RH  025%=      5-min Rain = 0
KMC4 202221Z 14012KT 37/14 A30 RMK A01 T03700136  RH  025%=      5-min Rain = 0
KMC4 202222Z 14012KT 37/14 A30 RMK A01 T03680136  RH  025%=      5-min Rain = 0
KMC4 202223Z 14013KT 37/14 A30 RMK A01 T03680142  RH  026%=      5-min Rain = 0
KMC4 202224Z 12014KT 37/14 A30 RMK A01 T03700142  RH  026%=      5-min Rain = 0
KMC4 202225Z 11010KT 37/14 A30 RMK A01 T03690141  RH  026%=      5-min Rain = 0
KMC4 202226Z 11008KT 37/14 A30 RMK A01 T03680140  RH  026%=      5-min Rain = 0
KMC4 202227Z 10008KT 37/14 A30 RMK A01 T03670141  RH  026%=      5-min Rain = 0
KMC4 202228Z 10007KT 37/14 A30 RMK A01 T03680140  RH  026%=      5-min Rain = 0
KMC4 202229Z 11008KT 37/14 A30 RMK A01 T03690142  RH  026%=      5-min Rain = 0
KMC4 202230Z 12010KT 37/14 A2999 RMK A01 T03720143  RH  026%=      5-min Rain = 0
KMC4 202231Z 15012KT 37/14 A2999 RMK A01 T03740143  RH  025%=      5-min Rain = 0
KMC4 202232Z 15012KT 37/14 A2999 RMK A01 T03740138  RH  025%=      5-min Rain = 0
KMC4 202233Z 15012KT 37/14 A2999 RMK A01 T03720138  RH  025%=      5-min Rain = 0
KMC4 202234Z 14014KT 37/14 A2999 RMK A01 T03730138  RH  025%=      5-min Rain = 0
KMC4 202235Z 14012KT 37/14 A2999 RMK A01 T03740136  RH  024%=      5-min Rain = 0
KMC4 202236Z 15013KT 37/14 A2999 RMK A01 T03730138  RH  025%=      5-min Rain = 0
KMC4 202237Z 14018KT 37/14 A2999 RMK A01 T03730142  RH  025%=      5-min Rain = 0
KMC4 202238Z 14016KT 37/14 A2999 RMK A01 T03730144  RH  026%=      5-min Rain = 0
KMC4 202239Z 14015KT 37/14 A2999 RMK A01 T03710144  RH  026%=      5-min Rain = 0
KMC4 202240Z 13015KT 37/15 A2999 RMK A01 T03700145  RH  026%=      5-min Rain = 0
KMC4 202241Z 12012KT 37/15 A30 RMK A01 T03710145  RH  026%=      5-min Rain = 0
KMC4 202242Z 11009G14KT 37/15 A2999 RMK A01 T03710145  RH  026%=      5-min Rain = 0
KMC4 202243Z 11011KT 37/15 A2999 RMK A01 T03700145  RH  026%=      5-min Rain = 0
KMC4 202244Z 13010KT 37/14 A2999 RMK A01 T03680143  RH  026%=      5-min Rain = 0
KMC4 202245Z 11010KT 37/14 A2999 RMK A01 T03680142  RH  026%=      5-min Rain = 0
KMC4 202246Z 12008KT 37/14 A2999 RMK A01 T03660141  RH  026%=      5-min Rain = 0
KMC4 202247Z 16010KT 37/14 A30 RMK A01 T03660139  RH  026%=      5-min Rain = 0
KMC4 202248Z 17009KT 37/14 A2999 RMK A01 T03660137  RH  025%=      5-min Rain = 0
KMC4 202249Z 17007KT 37/14 A2999 RMK A01 T03650137  RH  026%=      5-min Rain = 0
KMC4 202250Z 15010KT 36/14 A2999 RMK A01 T03640140  RH  026%=      5-min Rain = 0
KMC4 202251Z 12011KT 37/14 A2999 RMK A01 T03680143  RH  026%=      5-min Rain = 0
KMC4 202252Z 13010KT 37/14 A2999 RMK A01 T03680144  RH  026%=      5-min Rain = 0
KMC4 202253Z 16008KT 37/15 A2999 RMK A01 T03670145  RH  027%=      5-min Rain = 0
KMC4 202254Z 14010KT 37/15 A2999 RMK A01 T03690146  RH  027%=      5-min Rain = 0
KMC4 202255Z 13011KT 37/15 A2999 RMK A01 T03720145  RH  026%=      5-min Rain = 0
KMC4 202256Z 13013KT 37/14 A2999 RMK A01 T03730140  RH  025%=      5-min Rain = 0
KMC4 202257Z 11010KT 37/14 A2999 RMK A01 T03730138  RH  025%=      5-min Rain = 0
KMC4 202258Z 12011KT 37/14 A2999 RMK A01 T03710137  RH  025%=      5-min Rain = 0
KMC4 202259Z 12009KT 37/14 A30 RMK A01 T03710137  RH  025%=      5-min Rain = 0
KMC4 202300Z 11008KT 37/14 A30 RMK A01 T03730138  RH  025%=      5-min Rain = 0
KMC4 202301Z 11009KT 37/14 A30 RMK A01 T03730137  RH  025%=      5-min Rain = 0
KMC4 202302Z 09012G18KT 37/14 A2999 RMK A01 T03700138  RH  025%=      5-min Rain = 0
KMC4 202303Z 09014KT 37/14 A2999 RMK A01 T03680140  RH  026%=      5-min Rain = 0
KMC4 202304Z 11010KT 37/14 A2999 RMK A01 T03660141  RH  026%=      5-min Rain = 0
KMC4 202305Z 15014KT 37/14 A2999 RMK A01 T03670140  RH  026%=      5-min Rain = 0
KMC4 202306Z 14009KT 37/14 A2999 RMK A01 T03680139  RH  026%=      5-min Rain = 0
KMC4 202307Z 12011KT 37/14 A2999 RMK A01 T03690140  RH  026%=      5-min Rain = 0
KMC4 202308Z 14014KT 37/14 A2999 RMK A01 T03710138  RH  025%=      5-min Rain = 0
KMC4 202309Z 13015KT 37/14 A2999 RMK A01 T03710135  RH  025%=      5-min Rain = 0
KMC4 202310Z 13013KT 37/14 A2999 RMK A01 T03690137  RH  025%=      5-min Rain = 0
KMC4 202311Z 13014KT 37/14 A2999 RMK A01 T03690137  RH  025%=      5-min Rain = 0
KMC4 202312Z 14014KT 37/14 A2999 RMK A01 T03690135  RH  025%=      5-min Rain = 0
KMC4 202313Z 13013KT 37/14 A2999 RMK A01 T03690136  RH  025%=      5-min Rain = 0
KMC4 202314Z 13011KT 37/13 A2999 RMK A01 T03690133  RH  024%=      5-min Rain = 0
KMC4 202315Z 12012KT 37/13 A2999 RMK A01 T03680134  RH  025%=      5-min Rain = 0
KMC4 202316Z 11011KT 37/13 A2999 RMK A01 T03680132  RH  025%=      5-min Rain = 0
KMC4 202317Z 11011KT 37/13 A2999 RMK A01 T03660130  RH  024%=      5-min Rain = 0
KMC4 202318Z 13011KT 37/13 A2999 RMK A01 T03660131  RH  025%=      5-min Rain = 0
KMC4 202319Z 13010KT 37/13 A2999 RMK A01 T03680131  RH  024%=      5-min Rain = 0
KMC4 202320Z 11011KT 37/13 A2999 RMK A01 T03680130  RH  024%=      5-min Rain = 0
KMC4 202321Z 10015KT 37/13 A2999 RMK A01 T03680133  RH  025%=      5-min Rain = 0
KMC4 202322Z 11009G14KT 37/13 A2999 RMK A01 T03670133  RH  025%=      5-min Rain = 0
KMC4 202323Z 09007KT 37/13 A2999 RMK A01 T03660133  RH  025%=      5-min Rain = 0
KMC4 202324Z 09005KT 37/14 A2999 RMK A01 T03650137  RH  026%=      5-min Rain = 0
KMC4 202325Z 09009G14KT 37/14 A2999 RMK A01 T03660140  RH  026%=      5-min Rain = 0
KMC4 202326Z 12014G19KT 37/14 A2999 RMK A01 T03660143  RH  026%=      5-min Rain = 0
KMC4 202327Z 16011KT 37/14 A2999 RMK A01 T03670143  RH  026%=      5-min Rain = 0
KMC4 202328Z 15011KT 37/14 A2999 RMK A01 T03680143  RH  026%=      5-min Rain = 0
KMC4 202329Z 16014KT 37/14 A2999 RMK A01 T03680143  RH  026%=      5-min Rain = 0
KMC4 202330Z 15014G19KT 37/14 A2998 RMK A01 T03670141  RH  026%=      5-min Rain = 0
KMC4 202331Z 14017KT 37/14 A2999 RMK A01 T03660140  RH  026%=      5-min Rain = 0
KMC4 202332Z 13015KT 37/14 A2999 RMK A01 T03670139  RH  026%=      5-min Rain = 0
KMC4 202333Z 12015KT 37/14 A2999 RMK A01 T03660138  RH  026%=      5-min Rain = 0
KMC4 202334Z 12013KT 37/14 A2999 RMK A01 T03650137  RH  026%=      5-min Rain = 0
KMC4 202335Z 13014KT 37/14 A2999 RMK A01 T03650136  RH  026%=      5-min Rain = 0
KMC4 202336Z 11012G17KT 37/14 A2999 RMK A01 T03650135  RH  025%=      5-min Rain = 0
KMC4 202337Z 10009KT 37/14 A2999 RMK A01 T03660136  RH  025%=      5-min Rain = 0
KMC4 202338Z 11011KT 37/14 A2999 RMK A01 T03670136  RH  025%=      5-min Rain = 0
KMC4 202339Z 12010KT 37/14 A2999 RMK A01 T03670135  RH  025%=      5-min Rain = 0
KMC4 202340Z 11013G19KT 37/13 A2999 RMK A01 T03650134  RH  025%=      5-min Rain = 0
KMC4 202341Z 13014KT 37/13 A2999 RMK A01 T03650132  RH  025%=      5-min Rain = 0
KMC4 202342Z 14013KT 36/13 A2999 RMK A01 T03640131  RH  025%=      5-min Rain = 0
KMC4 202343Z 13011KT 37/13 A2999 RMK A01 T03650131  RH  025%=      5-min Rain = 0
KMC4 202344Z 13010KT 37/13 A2999 RMK A01 T03650129  RH  024%=      5-min Rain = 0
KMC4 202345Z 14011KT 37/13 A2999 RMK A01 T03650129  RH  024%=      5-min Rain = 0
KMC4 202346Z 14010KT 36/13 A2999 RMK A01 T03640125  RH  024%=      5-min Rain = 0
KMC4 202347Z 15008KT 36/13 A2999 RMK A01 T03640125  RH  024%=      5-min Rain = 0
KMC4 202348Z 15007KT 36/13 A2999 RMK A01 T03630125  RH  024%=      5-min Rain = 0
KMC4 202349Z 14007KT 36/13 A2999 RMK A01 T03620125  RH  024%=      5-min Rain = 0
KMC4 202350Z 15011KT 36/13 A2999 RMK A01 T03630129  RH  025%=      5-min Rain = 0
KMC4 202351Z 15012KT 36/14 A2999 RMK A01 T03630136  RH  026%=      5-min Rain = 0
KMC4 202352Z 13012KT 36/14 A2999 RMK A01 T03640139  RH  026%=      5-min Rain = 0
KMC4 202353Z 14012G17KT 37/14 A2999 RMK A01 T03650140  RH  026%=      5-min Rain = 0
KMC4 202354Z 14014KT 37/14 A2999 RMK A01 T03660140  RH  026%=      5-min Rain = 0
KMC4 202355Z 15012KT 37/14 A2999 RMK A01 T03650140  RH  026%=      5-min Rain = 0
KMC4 202356Z 15014KT 36/14 A2999 RMK A01 T03640139  RH  026%=      5-min Rain = 0
KMC4 202357Z 16012KT 36/14 A2999 RMK A01 T03630139  RH  026%=      5-min Rain = 0
KMC4 202358Z 16010KT 36/14 A2999 RMK A01 T03610139  RH  027%=      5-min Rain = 0
KMC4 202359Z 14010KT 36/14 A2999 RMK A01 T03600140  RH  027%=      5-min Rain = 0
KMC4 210000Z 13010KT 36/14 A2999 RMK A01 T03600139  RH  027%=      5-min Rain = 0
KMC4 210001Z 14011KT 36/14 A2998 RMK A01 T03610139  RH  026%=      5-min Rain = 0
KMC4 210002Z 13015KT 36/14 A2999 RMK A01 T03620138  RH  026%=      5-min Rain = 0
KMC4 210003Z 13015KT 36/14 A2999 RMK A01 T03620136  RH  026%=      5-min Rain = 0
KMC4 210004Z 12013KT 36/14 A2999 RMK A01 T03610136  RH  026%=      5-min Rain = 0
KMC4 210005Z 11013KT 36/14 A2999 RMK A01 T03610136  RH  026%=      5-min Rain = 0
KMC4 210006Z 12012G17KT 36/14 A2999 RMK A01 T03600135  RH  026%=      5-min Rain = 0
KMC4 210007Z 13015KT 36/14 A2999 RMK A01 T03600136  RH  026%=      5-min Rain = 0
KMC4 210008Z 12013KT 36/14 A2999 RMK A01 T03590135  RH  026%=      5-min Rain = 0
KMC4 210009Z 13010KT 36/14 A2999 RMK A01 T03590136  RH  026%=      5-min Rain = 0
KMC4 210010Z 13010KT 36/14 A2999 RMK A01 T03590136  RH  026%=      5-min Rain = 0
KMC4 210011Z 12010KT 36/14 A2999 RMK A01 T03600136  RH  026%=      5-min Rain = 0
KMC4 210012Z 11008KT 36/14 A2999 RMK A01 T03590136  RH  026%=      5-min Rain = 0
KMC4 210013Z 13008KT 36/14 A2999 RMK A01 T03580135  RH  026%=      5-min Rain = 0
KMC4 210014Z 13013KT 36/14 A2999 RMK A01 T03570136  RH  027%=      5-min Rain = 0
KMC4 210015Z 13012KT 36/14 A2999 RMK A01 T03570138  RH  027%=      5-min Rain = 0
KMC4 210016Z 14012KT 36/14 A2999 RMK A01 T03580138  RH  027%=      5-min Rain = 0
KMC4 210017Z 13011KT 36/14 A2999 RMK A01 T03580139  RH  027%=      5-min Rain = 0
KMC4 210018Z 14012KT 36/14 A2999 RMK A01 T03580139  RH  027%=      5-min Rain = 0
KMC4 210019Z 13011KT 36/14 A2999 RMK A01 T03580139  RH  027%=      5-min Rain = 0
KMC4 210020Z 12013KT 36/14 A2999 RMK A01 T03570139  RH  027%=      5-min Rain = 0
KMC4 210021Z 14012G17KT 36/14 A2999 RMK A01 T03570140  RH  027%=      5-min Rain = 0
KMC4 210022Z 14014KT 36/14 A2999 RMK A01 T03560138  RH  027%=      5-min Rain = 0
KMC4 210023Z 14013KT 36/14 A2999 RMK A01 T03560137  RH  027%=      5-min Rain = 0
KMC4 210024Z 13013KT 36/14 A2999 RMK A01 T03560138  RH  027%=      5-min Rain = 0
KMC4 210025Z 14013KT 36/14 A2999 RMK A01 T03560138  RH  027%=      5-min Rain = 0
KMC4 210026Z 14013KT 36/14 A2999 RMK A01 T03550137  RH  027%=      5-min Rain = 0
KMC4 210027Z 15010KT 36/14 A2999 RMK A01 T03550138  RH  027%=      5-min Rain = 0
KMC4 210028Z 15008KT 36/14 A2999 RMK A01 T03550138  RH  027%=      5-min Rain = 0
KMC4 210029Z 15007KT 36/14 A2999 RMK A01 T03550138  RH  027%=      5-min Rain = 0
KMC4 210030Z 15009KT 36/14 A2999 RMK A01 T03550138  RH  027%=      5-min Rain = 0
KMC4 210031Z 16010KT 36/14 A2999 RMK A01 T03550138  RH  027%=      5-min Rain = 0
KMC4 210032Z 16010KT 36/14 A2999 RMK A01 T03550137  RH  027%=      5-min Rain = 0
KMC4 210033Z 15010KT 36/14 A2999 RMK A01 T03550138  RH  027%=      5-min Rain = 0
KMC4 210034Z 13011KT 36/14 A2999 RMK A01 T03550138  RH  027%=      5-min Rain = 0
KMC4 210035Z 13014KT 36/14 A2999 RMK A01 T03560137  RH  027%=      5-min Rain = 0
KMC4 210036Z 14012KT 36/14 A2999 RMK A01 T03560137  RH  027%=      5-min Rain = 0
KMC4 210037Z 14012KT 36/14 A2999 RMK A01 T03560138  RH  027%=      5-min Rain = 0
KMC4 210038Z 13012KT 36/14 A2999 RMK A01 T03560138  RH  027%=      5-min Rain = 0
KMC4 210039Z 12010KT 36/14 A2999 RMK A01 T03560138  RH  027%=      5-min Rain = 0
KMC4 210040Z 12010KT 36/14 A2999 RMK A01 T03550139  RH  027%=      5-min Rain = 0
KMC4 210041Z 11011KT 36/14 A2999 RMK A01 T03550139  RH  027%=      5-min Rain = 0
KMC4 210042Z 12010KT 35/14 A2999 RMK A01 T03540139  RH  028%=      5-min Rain = 0
KMC4 210043Z 13011KT 35/14 A2999 RMK A01 T03530139  RH  028%=      5-min Rain = 0
KMC4 210044Z 13012KT 35/14 A2999 RMK A01 T03520139  RH  028%=      5-min Rain = 0
KMC4 210045Z 13010KT 35/14 A2999 RMK A01 T03520139  RH  028%=      5-min Rain = 0
KMC4 210046Z 14012G17KT 35/14 A2999 RMK A01 T03520140  RH  028%=      5-min Rain = 0
KMC4 210047Z 15015KT 35/14 A2999 RMK A01 T03520141  RH  028%=      5-min Rain = 0
KMC4 210048Z 15013KT 35/14 A2999 RMK A01 T03510141  RH  028%=      5-min Rain = 0
KMC4 210049Z 15010KT 35/14 A2999 RMK A01 T03510141  RH  028%=      5-min Rain = 0
KMC4 210050Z 14011KT 35/14 A2999 RMK A01 T03500141  RH  028%=      5-min Rain = 0
KMC4 210051Z 15011KT 35/14 A2999 RMK A01 T03500141  RH  028%=      5-min Rain = 0
KMC4 210052Z 15011KT 35/14 A2999 RMK A01 T03500141  RH  029%=      5-min Rain = 0
KMC4 210053Z 15010KT 35/14 A2999 RMK A01 T03500141  RH  029%=      5-min Rain = 0
KMC4 210054Z 16012KT 35/14 A2999 RMK A01 T03500141  RH  029%=      5-min Rain = 0
KMC4 210055Z 15011KT 35/14 A2999 RMK A01 T03490142  RH  029%=      5-min Rain = 0
KMC4 210056Z 15010KT 35/14 A2999 RMK A01 T03490142  RH  029%=      5-min Rain = 0
KMC4 210057Z 15013KT 35/14 A2999 RMK A01 T03490143  RH  029%=      5-min Rain = 0
KMC4 210058Z 14012KT 35/14 A2999 RMK A01 T03490143  RH  029%=      5-min Rain = 0
KMC4 210059Z 15012KT 35/14 A2999 RMK A01 T03490143  RH  029%=      5-min Rain = 0
KMC4 210100Z 15010KT 35/14 A2999 RMK A01 T03490143  RH  029%=      5-min Rain = 0
KMC4 210101Z 14008KT 35/14 A2999 RMK A01 T03490144  RH  029%=      5-min Rain = 0
KMC4 210102Z 13010KT 35/14 A2999 RMK A01 T03490142  RH  029%=      5-min Rain = 0
KMC4 210103Z 14010KT 35/14 A2999 RMK A01 T03480140  RH  029%=      5-min Rain = 0
KMC4 210104Z 14009KT 35/14 A2999 RMK A01 T03480141  RH  029%=      5-min Rain = 0
KMC4 210105Z 14009KT 35/14 A2999 RMK A01 T03480141  RH  029%=      5-min Rain = 0
KMC4 210106Z 14010KT 35/14 A2999 RMK A01 T03480142  RH  029%=      5-min Rain = 0
KMC4 210107Z 14011KT 35/14 A2999 RMK A01 T03470142  RH  029%=      5-min Rain = 0
KMC4 210108Z 14010KT 35/14 A2999 RMK A01 T03460143  RH  030%=      5-min Rain = 0
KMC4 210109Z 14012KT 35/14 A2999 RMK A01 T03460143  RH  030%=      5-min Rain = 0
KMC4 210110Z 15012KT 35/14 A2999 RMK A01 T03450143  RH  030%=      5-min Rain = 0
KMC4 210111Z 15011KT 35/14 A2999 RMK A01 T03450143  RH  030%=      5-min Rain = 0
KMC4 210112Z 15011KT 34/14 A2999 RMK A01 T03440143  RH  030%=      5-min Rain = 0
KMC4 210113Z 15010KT 34/14 A2999 RMK A01 T03440143  RH  030%=      5-min Rain = 0
KMC4 210114Z 15010KT 34/14 A2999 RMK A01 T03440142  RH  030%=      5-min Rain = 0
KMC4 210115Z 16009KT 34/14 A2999 RMK A01 T03430142  RH  030%=      5-min Rain = 0
KMC4 210116Z 16010KT 34/14 A2999 RMK A01 T03430142  RH  030%=      5-min Rain = 0
KMC4 210117Z 16012KT 34/14 A2999 RMK A01 T03420142  RH  030%=      5-min Rain = 0
KMC4 210118Z 15012KT 34/14 A2999 RMK A01 T03430142  RH  030%=      5-min Rain = 0
KMC4 210119Z 15009KT 34/14 A2999 RMK A01 T03420141  RH  030%=      5-min Rain = 0
KMC4 210120Z 15011KT 34/14 A2999 RMK A01 T03420141  RH  030%=      5-min Rain = 0
KMC4 210121Z 14011KT 34/14 A2999 RMK A01 T03430142  RH  030%=      5-min Rain = 0
KMC4 210122Z 14010KT 34/14 A2999 RMK A01 T03420141  RH  030%=      5-min Rain = 0
KMC4 210123Z 13010KT 34/14 A2999 RMK A01 T03420141  RH  030%=      5-min Rain = 0
KMC4 210124Z 13009KT 34/14 A2999 RMK A01 T03420141  RH  030%=      5-min Rain = 0
KMC4 210125Z 13009KT 34/14 A2999 RMK A01 T03410141  RH  030%=      5-min Rain = 0
KMC4 210126Z 13009KT 34/14 A30 RMK A01 T03410141  RH  030%=      5-min Rain = 0
KMC4 210127Z 14008KT 34/14 A30 RMK A01 T03410141  RH  030%=      5-min Rain = 0
KMC4 210128Z 14008KT 34/14 A30 RMK A01 T03400141  RH  030%=      5-min Rain = 0
KMC4 210129Z 14007KT 34/14 A30 RMK A01 T03400141  RH  030%=      5-min Rain = 0
KMC4 210130Z 14007KT 34/14 A30 RMK A01 T03390141  RH  030%=      5-min Rain = 0
KMC4 210131Z 14007KT 34/14 A30 RMK A01 T03390141  RH  030%=      5-min Rain = 0
KMC4 210132Z 14009KT 34/14 A30 RMK A01 T03380142  RH  031%=      5-min Rain = 0
KMC4 210133Z 13009KT 34/14 A30 RMK A01 T03380142  RH  031%=      5-min Rain = 0
KMC4 210134Z 14009KT 34/14 A30 RMK A01 T03380143  RH  031%=      5-min Rain = 0
KMC4 210135Z 14007KT 34/14 A30 RMK A01 T03370143  RH  031%=      5-min Rain = 0
KMC4 210136Z 15008KT 34/14 A30 RMK A01 T03370143  RH  031%=      5-min Rain = 0
KMC4 210137Z 15008KT 34/14 A30 RMK A01 T03370143  RH  031%=      5-min Rain = 0
KMC4 210138Z 15010KT 34/14 A30 RMK A01 T03370144  RH  031%=      5-min Rain = 0
KMC4 210139Z 15008KT 34/14 A30 RMK A01 T03370144  RH  031%=      5-min Rain = 0
KMC4 210140Z 15009KT 34/14 A30 RMK A01 T03370144  RH  031%=      5-min Rain = 0
KMC4 210141Z 15010KT 34/14 A30 RMK A01 T03370144  RH  031%=      5-min Rain = 0
KMC4 210142Z 14011KT 34/14 A30 RMK A01 T03370144  RH  031%=      5-min Rain = 0
KMC4 210143Z 15011KT 34/14 A30 RMK A01 T03370144  RH  031%=      5-min Rain = 0
KMC4 210144Z 14010KT 34/14 A30 RMK A01 T03370144  RH  031%=      5-min Rain = 0
KMC4 210145Z 14008KT 34/15 A30 RMK A01 T03370145  RH  032%=      5-min Rain = 0
KMC4 210146Z 14008KT 34/14 A3001 RMK A01 T03360144  RH  032%=      5-min Rain = 0
KMC4 210147Z 14007KT 34/14 A3001 RMK A01 T03350144  RH  032%=      5-min Rain = 0
KMC4 210148Z 14008KT 33/14 A3001 RMK A01 T03340144  RH  032%=      5-min Rain = 0
KMC4 210149Z 14007KT 33/14 A3001 RMK A01 T03340144  RH  032%=      5-min Rain = 0
KMC4 210150Z 14007KT 33/15 A3001 RMK A01 T03340145  RH  032%=      5-min Rain = 0
KMC4 210151Z 15007KT 33/14 A3001 RMK A01 T03330144  RH  032%=      5-min Rain = 0
KMC4 210152Z 15007KT 33/14 A3001 RMK A01 T03320144  RH  032%=      5-min Rain = 0
KMC4 210153Z 15007KT 33/15 A3001 RMK A01 T03320145  RH  032%=      5-min Rain = 0
KMC4 210154Z 14008KT 33/15 A3001 RMK A01 T03320145  RH  032%=      5-min Rain = 0
KMC4 210155Z 15007KT 33/15 A3001 RMK A01 T03320145  RH  032%=      5-min Rain = 0
KMC4 210156Z 15008KT 33/15 A3001 RMK A01 T03320145  RH  032%=      5-min Rain = 0
KMC4 210157Z 15008KT 33/15 A3001 RMK A01 T03310145  RH  033%=      5-min Rain = 0
KMC4 210158Z 15008KT 33/15 A3001 RMK A01 T03310145  RH  033%=      5-min Rain = 0
KMC4 210159Z 15008KT 33/15 A3001 RMK A01 T03310146  RH  033%=      5-min Rain = 0
KMC4 210200Z 15008KT 33/15 A3001 RMK A01 T03300146  RH  033%=      5-min Rain = 0
KMC4 210201Z 15009KT 33/15 A3001 RMK A01 T03300146  RH  033%=      5-min Rain = 0
KMC4 210202Z 15009KT 33/15 A3001 RMK A01 T03300147  RH  033%=      5-min Rain = 0
KMC4 210203Z 15008KT 33/15 A3001 RMK A01 T03300147  RH  033%=      5-min Rain = 0
KMC4 210204Z 14009KT 33/15 A3001 RMK A01 T03300147  RH  033%=      5-min Rain = 0
KMC4 210205Z 15008KT 33/15 A3001 RMK A01 T03290147  RH  033%=      5-min Rain = 0
KMC4 210206Z 15008KT 33/15 A3001 RMK A01 T03290148  RH  033%=      5-min Rain = 0
KMC4 210207Z 14008KT 33/15 A3001 RMK A01 T03290148  RH  034%=      5-min Rain = 0
KMC4 210208Z 15008KT 33/15 A3001 RMK A01 T03290148  RH  034%=      5-min Rain = 0
KMC4 210209Z 15008KT 33/15 A3001 RMK A01 T03280148  RH  034%=      5-min Rain = 0
KMC4 210210Z 15008KT 33/15 A3001 RMK A01 T03280148  RH  034%=      5-min Rain = 0
KMC4 210211Z 15009KT 33/15 A3001 RMK A01 T03280149  RH  034%=      5-min Rain = 0
KMC4 210212Z 15009KT 33/15 A3001 RMK A01 T03280149  RH  034%=      5-min Rain = 0
KMC4 210213Z 15009KT 33/15 A3001 RMK A01 T03280150  RH  034%=      5-min Rain = 0
KMC4 210214Z 16008KT 33/15 A3001 RMK A01 T03280150  RH  034%=      5-min Rain = 0
KMC4 210215Z 15008KT 33/15 A3001 RMK A01 T03270149  RH  034%=      5-min Rain = 0
KMC4 210216Z 16007KT 33/15 A3001 RMK A01 T03270150  RH  034%=      5-min Rain = 0
KMC4 210217Z 16007KT 33/15 A3001 RMK A01 T03270150  RH  034%=      5-min Rain = 0
KMC4 210218Z 16009KT 33/15 A3002 RMK A01 T03260150  RH  034%=      5-min Rain = 0
KMC4 210219Z 16008KT 33/15 A3002 RMK A01 T03270150  RH  035%=      5-min Rain = 0
KMC4 210220Z 16007KT 33/15 A3002 RMK A01 T03260150  RH  035%=      5-min Rain = 0
KMC4 210221Z 16007KT 33/15 A3002 RMK A01 T03260150  RH  035%=      5-min Rain = 0
KMC4 210222Z 16007KT 33/15 A3002 RMK A01 T03250150  RH  035%=      5-min Rain = 0
KMC4 210223Z 17009KT 33/15 A3002 RMK A01 T03250150  RH  035%=      5-min Rain = 0
KMC4 210224Z 16007KT 33/15 A3002 RMK A01 T03250151  RH  035%=      5-min Rain = 0
KMC4 210225Z 16007KT 33/15 A3002 RMK A01 T03250151  RH  035%=      5-min Rain = 0
KMC4 210226Z 16007KT 32/15 A3002 RMK A01 T03240151  RH  035%=      5-min Rain = 0
KMC4 210227Z 16007KT 32/15 A3002 RMK A01 T03240151  RH  035%=      5-min Rain = 0
KMC4 210228Z 16007KT 32/15 A3002 RMK A01 T03230151  RH  035%=      5-min Rain = 0
KMC4 210229Z 16007KT 32/15 A3002 RMK A01 T03230151  RH  035%=      5-min Rain = 0
KMC4 210230Z 16008KT 32/15 A3002 RMK A01 T03230151  RH  035%=      5-min Rain = 0
KMC4 210231Z 16008KT 32/15 A3002 RMK A01 T03230151  RH  036%=      5-min Rain = 0
KMC4 210232Z 15008KT 32/15 A3002 RMK A01 T03230151  RH  035%=      5-min Rain = 0
KMC4 210233Z 16009KT 32/15 A3002 RMK A01 T03230151  RH  035%=      5-min Rain = 0
KMC4 210234Z 15008KT 32/15 A3002 RMK A01 T03230151  RH  035%=      5-min Rain = 0
KMC4 210235Z 16010KT 32/15 A3002 RMK A01 T03230151  RH  035%=      5-min Rain = 0
KMC4 210236Z 16009KT 32/15 A3002 RMK A01 T03230151  RH  035%=      5-min Rain = 0
KMC4 210237Z 16008KT 32/15 A3002 RMK A01 T03230151  RH  035%=      5-min Rain = 0
KMC4 210238Z 15008KT 32/15 A3002 RMK A01 T03230151  RH  035%=      5-min Rain = 0
KMC4 210239Z 16007KT 32/15 A3002 RMK A01 T03230152  RH  036%=      5-min Rain = 0
KMC4 210240Z 16008KT 32/15 A3002 RMK A01 T03230152  RH  036%=      5-min Rain = 0
KMC4 210241Z 16007KT 32/15 A3002 RMK A01 T03220151  RH  036%=      5-min Rain = 0
KMC4 210242Z 16008KT 32/15 A3002 RMK A01 T03220152  RH  036%=      5-min Rain = 0
KMC4 210243Z 16007KT 32/15 A3002 RMK A01 T03220152  RH  036%=      5-min Rain = 0
KMC4 210244Z 15006KT 32/15 A3002 RMK A01 T03220152  RH  036%=      5-min Rain = 0
KMC4 210245Z 15007KT 32/15 A3002 RMK A01 T03210152  RH  036%=      5-min Rain = 0
KMC4 210246Z 16006KT 32/15 A3003 RMK A01 T03210152  RH  036%=      5-min Rain = 0
KMC4 210247Z 15007KT 32/15 A3003 RMK A01 T03200152  RH  036%=      5-min Rain = 0
KMC4 210248Z 16006KT 32/15 A3003 RMK A01 T03200152  RH  036%=      5-min Rain = 0
KMC4 210249Z 15006KT 32/15 A3003 RMK A01 T03200151  RH  036%=      5-min Rain = 0
KMC4 210250Z 15005KT 32/15 A3003 RMK A01 T03190152  RH  036%=      5-min Rain = 0
KMC4 210251Z 16005KT 32/15 A3003 RMK A01 T03190152  RH  036%=      5-min Rain = 0
KMC4 210252Z 15005KT 32/15 A3003 RMK A01 T03180151  RH  037%=      5-min Rain = 0
KMC4 210253Z 15005KT 32/15 A3003 RMK A01 T03180152  RH  037%=      5-min Rain = 0
KMC4 210254Z 15005KT 32/15 A3003 RMK A01 T03170151  RH  037%=      5-min Rain = 0
KMC4 210255Z 16004KT 32/15 A3003 RMK A01 T03160151  RH  037%=      5-min Rain = 0
KMC4 210256Z 15004KT 32/15 A3003 RMK A01 T03160151  RH  037%=      5-min Rain = 0
KMC4 210257Z 15004KT 32/15 A3003 RMK A01 T03150151  RH  037%=      5-min Rain = 0
KMC4 210258Z 15004KT 32/15 A3003 RMK A01 T03150151  RH  037%=      5-min Rain = 0
KMC4 210259Z 15004KT 31/15 A3003 RMK A01 T03140151  RH  037%=      5-min Rain = 0
KMC4 210300Z 15004KT 31/15 A3004 RMK A01 T03130151  RH  037%=      5-min Rain = 0
KMC4 210301Z 15004KT 31/15 A3004 RMK A01 T03130151  RH  038%=      5-min Rain = 0
KMC4 210302Z 15004KT 31/15 A3004 RMK A01 T03120151  RH  038%=      5-min Rain = 0
KMC4 210303Z 15005KT 31/15 A3004 RMK A01 T03120151  RH  038%=      5-min Rain = 0
KMC4 210304Z 15005KT 31/15 A3004 RMK A01 T03110151  RH  038%=      5-min Rain = 0
KMC4 210305Z 15005KT 31/15 A3004 RMK A01 T03110151  RH  038%=      5-min Rain = 0
KMC4 210306Z 15005KT 31/15 A3004 RMK A01 T03110151  RH  038%=      5-min Rain = 0
KMC4 210307Z 15005KT 31/15 A3004 RMK A01 T03110151  RH  038%=      5-min Rain = 0
KMC4 210308Z 15004KT 31/15 A3004 RMK A01 T03110151  RH  038%=      5-min Rain = 0
KMC4 210309Z 15005KT 31/15 A3004 RMK A01 T03100151  RH  038%=      5-min Rain = 0
KMC4 210310Z 15005KT 31/15 A3004 RMK A01 T03100151  RH  038%=      5-min Rain = 0
KMC4 210311Z 15005KT 31/15 A3004 RMK A01 T03100151  RH  038%=      5-min Rain = 0
KMC4 210312Z 15005KT 31/15 A3004 RMK A01 T03100151  RH  038%=      5-min Rain = 0
KMC4 210313Z 15006KT 31/15 A3004 RMK A01 T03090151  RH  038%=      5-min Rain = 0
KMC4 210314Z 15005KT 31/15 A3004 RMK A01 T03090151  RH  038%=      5-min Rain = 0
KMC4 210315Z 15005KT 31/15 A3004 RMK A01 T03090152  RH  038%=      5-min Rain = 0
KMC4 210316Z 16005KT 31/15 A3004 RMK A01 T03090151  RH  039%=      5-min Rain = 0
KMC4 210317Z 16005KT 31/15 A3004 RMK A01 T03090152  RH  039%=      5-min Rain = 0
KMC4 210318Z 15005KT 31/15 A3004 RMK A01 T03080151  RH  039%=      5-min Rain = 0
KMC4 210319Z 16005KT 31/15 A3004 RMK A01 T03080152  RH  039%=      5-min Rain = 0
KMC4 210320Z 16004KT 31/15 A3004 RMK A01 T03080152  RH  039%=      5-min Rain = 0
KMC4 210321Z 15004KT 31/15 A3004 RMK A01 T03070152  RH  039%=      5-min Rain = 0
KMC4 210322Z 16004KT 31/15 A3004 RMK A01 T03070152  RH  039%=      5-min Rain = 0
KMC4 210323Z 16003KT 31/15 A3004 RMK A01 T03060151  RH  039%=      5-min Rain = 0
KMC4 210324Z 16004KT 31/15 A3004 RMK A01 T03060152  RH  039%=      5-min Rain = 0
KMC4 210325Z 15004KT 31/15 A3004 RMK A01 T03050151  RH  039%=      5-min Rain = 0
KMC4 210326Z 15004KT 31/15 A3004 RMK A01 T03050151  RH  039%=      5-min Rain = 0
KMC4 210327Z 15004KT 30/15 A3004 RMK A01 T03040151  RH  040%=      5-min Rain = 0
KMC4 210328Z 15004KT 30/15 A3004 RMK A01 T03040151  RH  040%=      5-min Rain = 0
KMC4 210329Z 15004KT 30/15 A3004 RMK A01 T03030151  RH  040%=      5-min Rain = 0
KMC4 210330Z 15003KT 30/15 A3004 RMK A01 T03030151  RH  040%=      5-min Rain = 0
KMC4 210331Z 15004KT 30/15 A3004 RMK A01 T03030150  RH  040%=      5-min Rain = 0
KMC4 210332Z 15003KT 30/15 A3004 RMK A01 T03020151  RH  040%=      5-min Rain = 0
KMC4 210333Z 15003KT 30/15 A3004 RMK A01 T03020151  RH  040%=      5-min Rain = 0
KMC4 210334Z 14004KT 30/15 A3004 RMK A01 T03020151  RH  040%=      5-min Rain = 0
KMC4 210335Z 14004KT 30/15 A3004 RMK A01 T03010150  RH  040%=      5-min Rain = 0
KMC4 210336Z 14004KT 30/15 A3004 RMK A01 T03010150  RH  040%=      5-min Rain = 0
KMC4 210337Z 14004KT 30/15 A3004 RMK A01 T03000150  RH  040%=      5-min Rain = 0
KMC4 210338Z 14004KT 30/15 A3004 RMK A01 T03000150  RH  040%=      5-min Rain = 0
KMC4 210339Z 14004KT 30/15 A3004 RMK A01 T03000150  RH  040%=      5-min Rain = 0
KMC4 210340Z 14004KT 30/15 A3004 RMK A01 T03000151  RH  040%=      5-min Rain = 0
KMC4 210341Z 14004KT 30/15 A3004 RMK A01 T03000150  RH  040%=      5-min Rain = 0
KMC4 210342Z 13004KT 30/15 A3004 RMK A01 T03000151  RH  040%=      5-min Rain = 0
KMC4 210343Z 13004KT 30/15 A3004 RMK A01 T03000150  RH  040%=      5-min Rain = 0
KMC4 210344Z 14004KT 30/15 A3004 RMK A01 T03000151  RH  040%=      5-min Rain = 0
KMC4 210345Z 14004KT 30/15 A3004 RMK A01 T03000151  RH  040%=      5-min Rain = 0
KMC4 210346Z 14004KT 30/15 A3005 RMK A01 T03000151  RH  040%=      5-min Rain = 0
KMC4 210347Z 14004KT 30/15 A3005 RMK A01 T03000151  RH  040%=      5-min Rain = 0
KMC4 210348Z 13004KT 30/15 A3005 RMK A01 T03000151  RH  040%=      5-min Rain = 0
KMC4 210349Z 14004KT 30/15 A3005 RMK A01 T03000151  RH  040%=      5-min Rain = 0
KMC4 210350Z 14004KT 30/15 A3005 RMK A01 T03000151  RH  040%=      5-min Rain = 0
KMC4 210351Z 14004KT 30/15 A3005 RMK A01 T03000151  RH  041%=      5-min Rain = 0
KMC4 210352Z 14004KT 30/15 A3005 RMK A01 T02990151  RH  041%=      5-min Rain = 0
KMC4 210353Z 14004KT 30/15 A3005 RMK A01 T02990151  RH  041%=      5-min Rain = 0
KMC4 210354Z 14004KT 30/15 A3005 RMK A01 T02980151  RH  041%=      5-min Rain = 0
KMC4 210355Z 14004KT 30/15 A3005 RMK A01 T02970151  RH  041%=      5-min Rain = 0
KMC4 210356Z 14004KT 30/15 A3005 RMK A01 T02970151  RH  041%=      5-min Rain = 0
KMC4 210357Z 14004KT 30/15 A3005 RMK A01 T02970151  RH  041%=      5-min Rain = 0
KMC4 210358Z 14004KT 30/15 A3005 RMK A01 T02960151  RH  041%=      5-min Rain = 0
KMC4 210359Z 14004KT 30/15 A3005 RMK A01 T02960151  RH  041%=      5-min Rain = 0
KMC4 210400Z 14004KT 30/15 A3005 RMK A01 T02950151  RH  041%=      5-min Rain = 0
KMC4 210401Z 14004KT 30/15 A3005 RMK A01 T02950151  RH  042%=      5-min Rain = 0
KMC4 210402Z 14004KT 30/15 A3005 RMK A01 T02950151  RH  042%=      5-min Rain = 0
KMC4 210403Z 14004KT 30/15 A3005 RMK A01 T02950151  RH  042%=      5-min Rain = 0
KMC4 210404Z 14004KT 29/15 A3005 RMK A01 T02940151  RH  042%=      5-min Rain = 0
KMC4 210405Z 14004KT 29/15 A3005 RMK A01 T02940151  RH  042%=      5-min Rain = 0
KMC4 210406Z 14004KT 29/15 A3005 RMK A01 T02940151  RH  042%=      5-min Rain = 0
KMC4 210407Z 14004KT 29/15 A3005 RMK A01 T02940150  RH  042%=      5-min Rain = 0
KMC4 210408Z 14004KT 29/15 A3005 RMK A01 T02940151  RH  042%=      5-min Rain = 0
KMC4 210409Z 14004KT 29/15 A3005 RMK A01 T02930150  RH  042%=      5-min Rain = 0
KMC4 210410Z 14004KT 29/15 A3005 RMK A01 T02930151  RH  042%=      5-min Rain = 0
KMC4 210411Z 14003KT 29/15 A3005 RMK A01 T02930150  RH  042%=      5-min Rain = 0
KMC4 210412Z 14004KT 29/15 A3005 RMK A01 T02930151  RH  042%=      5-min Rain = 0
KMC4 210413Z 14004KT 29/15 A3005 RMK A01 T02920150  RH  042%=      5-min Rain = 0
KMC4 210414Z 14004KT 29/15 A3005 RMK A01 T02920150  RH  042%=      5-min Rain = 0
KMC4 210415Z 14004KT 29/15 A3005 RMK A01 T02920150  RH  042%=      5-min Rain = 0
KMC4 210416Z 14004KT 29/15 A3005 RMK A01 T02910150  RH  042%=      5-min Rain = 0
KMC4 210417Z 15004KT 29/15 A3005 RMK A01 T02900150  RH  042%=      5-min Rain = 0
KMC4 210418Z 15004KT 29/15 A3005 RMK A01 T02900150  RH  043%=      5-min Rain = 0
KMC4 210419Z 15004KT 29/15 A3005 RMK A01 T02890150  RH  043%=      5-min Rain = 0
KMC4 210420Z 15004KT 29/15 A3005 RMK A01 T02900150  RH  043%=      5-min Rain = 0
KMC4 210421Z 15004KT 29/15 A3005 RMK A01 T02890150  RH  043%=      5-min Rain = 0
KMC4 210422Z 15004KT 29/15 A3005 RMK A01 T02890150  RH  043%=      5-min Rain = 0
KMC4 210423Z 15004KT 29/15 A3005 RMK A01 T02880149  RH  043%=      5-min Rain = 0
KMC4 210424Z 15005KT 29/15 A3005 RMK A01 T02880150  RH  043%=      5-min Rain = 0
KMC4 210425Z 14005KT 29/15 A3005 RMK A01 T02870150  RH  043%=      5-min Rain = 0
KMC4 210426Z 15004KT 29/15 A3005 RMK A01 T02870150  RH  043%=      5-min Rain = 0
KMC4 210427Z 15004KT 29/15 A3005 RMK A01 T02860149  RH  043%=      5-min Rain = 0
KMC4 210428Z 15005KT 29/15 A3005 RMK A01 T02860149  RH  043%=      5-min Rain = 0
KMC4 210429Z 15005KT 29/15 A3005 RMK A01 T02850149  RH  044%=      5-min Rain = 0
KMC4 210430Z 15005KT 29/15 A3005 RMK A01 T02850149  RH  044%=      5-min Rain = 0
KMC4 210431Z 15005KT 28/15 A3004 RMK A01 T02840149  RH  044%=      5-min Rain = 0
KMC4 210432Z 15005KT 28/15 A3004 RMK A01 T02840149  RH  044%=      5-min Rain = 0
KMC4 210433Z 15005KT 28/15 A3005 RMK A01 T02840149  RH  044%=      5-min Rain = 0
KMC4 210434Z 15005KT 28/15 A3005 RMK A01 T02840150  RH  044%=      5-min Rain = 0
KMC4 210435Z 15004KT 28/15 A3005 RMK A01 T02840150  RH  044%=      5-min Rain = 0
KMC4 210436Z 15005KT 28/15 A3005 RMK A01 T02840150  RH  044%=      5-min Rain = 0
KMC4 210437Z 15005KT 28/15 A3005 RMK A01 T02830150  RH  044%=      5-min Rain = 0
KMC4 210438Z 15005KT 28/15 A3005 RMK A01 T02830150  RH  044%=      5-min Rain = 0
KMC4 210439Z 14005KT 28/15 A3005 RMK A01 T02840150  RH  044%=      5-min Rain = 0
KMC4 210440Z 14005KT 28/15 A3005 RMK A01 T02840150  RH  044%=      5-min Rain = 0
KMC4 210441Z 14005KT 28/15 A3004 RMK A01 T02840150  RH  044%=      5-min Rain = 0
KMC4 210442Z 14005KT 28/15 A3004 RMK A01 T02840150  RH  044%=      5-min Rain = 0
KMC4 210443Z 15005KT 28/15 A3004 RMK A01 T02830150  RH  044%=      5-min Rain = 0
KMC4 210444Z 14005KT 28/15 A3004 RMK A01 T02830150  RH  044%=      5-min Rain = 0
KMC4 210445Z 14005KT 28/15 A3004 RMK A01 T02830150  RH  044%=      5-min Rain = 0
KMC4 210446Z 14005KT 28/15 A3004 RMK A01 T02830150  RH  044%=      5-min Rain = 0
KMC4 210447Z 14005KT 28/15 A3004 RMK A01 T02830150  RH  044%=      5-min Rain = 0
KMC4 210448Z 14005KT 28/15 A3004 RMK A01 T02830150  RH  044%=      5-min Rain = 0
KMC4 210449Z 14005KT 28/15 A3004 RMK A01 T02830151  RH  044%=      5-min Rain = 0
KMC4 210450Z 14005KT 28/15 A3004 RMK A01 T02830150  RH  044%=      5-min Rain = 0
KMC4 210451Z 14005KT 28/15 A3004 RMK A01 T02830150  RH  044%=      5-min Rain = 0
KMC4 210452Z 14005KT 28/15 A3004 RMK A01 T02830150  RH  044%=      5-min Rain = 0
KMC4 210453Z 14005KT 28/15 A3004 RMK A01 T02830150  RH  044%=      5-min Rain = 0
KMC4 210454Z 14005KT 28/15 A3004 RMK A01 T02830150  RH  044%=      5-min Rain = 0
KMC4 210455Z 14004KT 28/15 A3004 RMK A01 T02830150  RH  044%=      5-min Rain = 0
KMC4 210456Z 14005KT 28/15 A3004 RMK A01 T02830150  RH  044%=      5-min Rain = 0
KMC4 210457Z 14005KT 28/15 A3004 RMK A01 T02830150  RH  044%=      5-min Rain = 0
KMC4 210458Z 14005KT 28/15 A3004 RMK A01 T02830150  RH  044%=      5-min Rain = 0
KMC4 210459Z 15005KT 28/15 A3004 RMK A01 T02830150  RH  044%=      5-min Rain = 0

Page generated in 0.1649 seconds.